CW2988 Weather Reports


Display with metric or nautical units.
time (UTC)temp
F
wind
direction
speed
MPH
gust
MPH
rain 1hr
in
rain 24hr
in
rain mn
in
humidity
%
barometer
mb
20180116094840 0 277 7.0 12.0 0.00 0.00 0.00 84 1033.4
20180116094735 0 280 8.0 12.0 0.00 0.00 0.00 84 1033.4
20180116094633 0 285 8.0 12.0 0.00 0.00 0.00 84 1033.4
20180116094542 0 284 8.0 12.0 0.00 0.00 0.00 84 1033.3
20180116094439 0 290 8.0 12.0 0.00 0.00 0.00 84 1033.3
20180116094331 0 296 8.0 12.0 0.00 0.00 0.00 84 1033.3
20180116094232 -1 293 7.0 12.0 0.00 0.00 0.00 84 1033.3
20180116094146 -1 298 7.0 12.0 0.00 0.00 0.00 84 1033.3
20180116094036 -1 304 5.0 12.0 0.00 0.00 0.00 84 1033.3
20180116093930 -1 263 4.0 12.0 0.00 0.00 0.00 84 1033.3
20180116093843 -1 303 4.0 12.0 0.00 0.00 0.00 84 1033.3
20180116093740 -1 308 6.0 12.0 0.00 0.00 0.00 84 1033.3
20180116093636 -1 287 7.0 12.0 0.00 0.00 0.00 84 1033.3
20180116093543 -1 311 8.0 12.0 0.00 0.00 0.00 84 1033.3
20180116093443 -1 300 9.0 12.0 0.00 0.00 0.00 84 1033.3
20180116093340 -1 275 8.0 12.0 0.00 0.00 0.00 84 1033.3
20180116093231 -1 294 7.0 13.0 0.00 0.00 0.00 84 1033.2
20180116093148 -1 310 7.0 13.0 0.00 0.00 0.00 84 1033.2
20180116093037 -1 304 7.0 13.0 0.00 0.00 0.00 84 1033.1
20180116092946 -1 275 6.0 14.0 0.00 0.00 0.00 83 1033.2
20180116092845 -1 306 6.0 14.0 0.00 0.00 0.00 83 1033.2
20180116092742 -1 296 7.0 14.0 0.00 0.00 0.00 83 1033.1
20180116092642 -1 301 8.0 14.0 0.00 0.00 0.00 83 1033.1
20180116092534 -1 306 7.0 14.0 0.00 0.00 0.00 83 1033.1
20180116092447 -1 298 7.0 14.0 0.00 0.00 0.00 83 1033.1
20180116092341 -1 297 8.0 14.0 0.00 0.00 0.00 83 1033.1
20180116092236 -1 304 8.0 14.0 0.00 0.00 0.00 83 1033.1
20180116092132 -1 284 9.0 14.0 0.00 0.00 0.00 83 1033.1
20180116092041 -1 291 8.0 14.0 0.00 0.00 0.00 83 1033.1
20180116091941 -1 307 6.0 14.0 0.00 0.00 0.00 83 1033.0
20180116091837 -1 296 6.0 14.0 0.00 0.00 0.00 83 1033.1
20180116091732 -1 295 7.0 14.0 0.00 0.00 0.00 83 1033.1
20180116091646 -1 302 8.0 14.0 0.00 0.00 0.00 83 1033.0
20180116091532 -1 283 7.0 14.0 0.00 0.00 0.00 83 1033.0
20180116091448 -1 302 7.0 14.0 0.00 0.00 0.00 82 1033.1
20180116091345 -1 273 8.0 14.0 0.00 0.00 0.00 82 1033.1
20180116091240 -1 289 10.0 14.0 0.00 0.00 0.00 82 1033.1
20180116091142 -1 284 10.0 14.0 0.00 0.00 0.00 82 1033.1
20180116091032 -1 294 7.0 12.0 0.00 0.00 0.00 82 1033.1
20180116090946 -1 290 7.0 12.0 0.00 0.00 0.00 82 1033.2
20180116090842 -1 315 8.0 13.0 0.00 0.00 0.00 82 1033.1
20180116090740 -1 295 8.0 13.0 0.00 0.00 0.00 82 1033.1
20180116090636 -1 284 7.0 13.0 0.00 0.00 0.00 82 1033.2
20180116090546 -1 297 8.0 13.0 0.00 0.00 0.00 82 1033.1
20180116090445 -1 304 9.0 13.0 0.00 0.00 0.00 82 1033.2
20180116090338 -1 300 8.0 13.0 0.00 0.00 0.00 82 1033.2
20180116090234 -1 315 8.0 13.0 0.00 0.00 0.00 82 1033.3
20180116090132 -1 290 6.0 13.0 0.00 0.00 0.00 82 1033.3
20180116090042 -1 250 6.0 12.0 0.00 0.00 0.00 82 1033.3
20180116085937 -1 298 6.0 12.0 0.00 0.00 0.00 82 1033.3
20180116085851 -1 295 7.0 12.0 0.00 0.00 0.00 82 1033.3
20180116085732 -1 286 5.0 12.0 0.00 0.00 0.00 82 1033.3
20180116085645 -2 290 5.0 12.0 0.00 0.00 0.00 82 1033.3
20180116085551 -2 292 5.0 12.0 0.00 0.00 0.00 82 1033.3
20180116085448 -2 300 7.0 12.0 0.00 0.00 0.00 82 1033.3
20180116085342 -2 300 7.0 12.0 0.00 0.00 0.00 82 1033.2
20180116085237 -2 273 6.0 12.0 0.00 0.00 0.00 82 1033.2
20180116085133 -2 282 5.0 12.0 0.00 0.00 0.00 82 1033.2
20180116085043 -2 319 6.0 12.0 0.00 0.00 0.00 82 1033.2
20180116084942 -2 293 8.0 12.0 0.00 0.00 0.00 82 1033.3
20180116084835 -2 316 11.0 12.0 0.00 0.00 0.00 82 1033.2
20180116084647 -4 277 12.0 15.0 0.00 0.00 0.00 82 1033.2
20180116084552 -4 277 12.0 15.0 0.00 0.00 0.00 82 1033.1
20180116084445 -4 277 11.0 15.0 0.00 0.00 0.00 82 1033.1
20180116084342 -4 277 12.0 16.0 0.00 0.00 0.00 82 1033.2
20180116084250 -4 280 12.0 16.0 0.00 0.00 0.00 82 1033.1
20180116084150 -4 277 12.0 16.0 0.00 0.00 0.00 82 1033.2
20180116084036 -4 279 13.0 18.0 0.00 0.00 0.00 82 1033.2
20180116083932 -4 271 12.0 18.0 0.00 0.00 0.00 82 1033.2
20180116083847 -5 277 12.0 18.0 0.00 0.00 0.00 82 1033.1
20180116083734 -5 271 12.0 18.0 0.00 0.00 0.00 82 1033.1
20180116083648 -5 278 13.0 18.0 0.00 0.00 0.00 82 1033.0
20180116083547 -5 275 13.0 18.0 0.00 0.00 0.00 82 1033.0
20180116083441 -5 287 14.0 18.0 0.00 0.00 0.00 82 1033.0
20180116083341 -5 276 14.0 18.0 0.00 0.00 0.00 82 1033.0
20180116083233 -5 283 13.0 17.0 0.00 0.00 0.00 82 1033.0
20180116083150 -5 279 13.0 17.0 0.00 0.00 0.00 82 1033.0
20180116083057 -5 271 13.0 17.0 0.00 0.00 0.00 82 1033.0
20180116082944 -5 273 13.0 17.0 0.00 0.00 0.00 82 1033.0
20180116082841 -5 275 14.0 17.0 0.00 0.00 0.00 82 1033.0
20180116082739 -5 275 13.0 17.0 0.00 0.00 0.00 82 1032.9
20180116082636 -5 285 12.0 16.0 0.00 0.00 0.00 82 1032.9
20180116082546 -5 277 12.0 16.0 0.00 0.00 0.00 82 1032.9
20180116082442 -5 271 12.0 16.0 0.00 0.00 0.00 82 1032.9
20180116082338 -5 278 12.0 16.0 0.00 0.00 0.00 82 1032.9
20180116082234 -5 275 13.0 16.0 0.00 0.00 0.00 82 1032.9
20180116082151 -5 271 13.0 16.0 0.00 0.00 0.00 82 1033.0
20180116082042 -5 283 13.0 16.0 0.00 0.00 0.00 82 1033.0
20180116081939 -5 282 12.0 16.0 0.00 0.00 0.00 82 1033.0
20180116081840 -5 278 11.0 15.0 0.00 0.00 0.00 82 1032.9
20180116081732 -5 278 11.0 14.0 0.00 0.00 0.00 81 1032.9
20180116081633 -5 281 11.0 14.0 0.00 0.00 0.00 81 1032.9
20180116081443 -6 274 11.0 13.0 0.00 0.00 0.00 81 1032.8
20180116081345 -6 277 11.0 13.0 0.00 0.00 0.00 81 1032.9
20180116081231 -6 277 11.0 13.0 0.00 0.00 0.00 81 1032.8
20180116080929 -6 275 10.0 15.0 0.00 0.00 0.00 81 1033.0
20180116080830 -6 276 10.0 15.0 0.00 0.00 0.00 81 1033.0
20180116080730 -6 278 10.0 15.0 0.00 0.00 0.00 81 1033.0
20180116080630 -6 273 11.0 15.0 0.00 0.00 0.00 81 1032.9
20180116080543 -6 282 11.0 17.0 0.00 0.00 0.00 81 1032.9
20180116080443 -6 284 11.0 17.0 0.00 0.00 0.00 81 1032.9
20180116080337 -6 276 12.0 17.0 0.00 0.00 0.00 81 1032.9
20180116080239 -6 275 13.0 17.0 0.00 0.00 0.00 81 1032.8
20180116080157 -6 274 13.0 17.0 0.00 0.00 0.00 81 1032.8
20180116080040 -6 296 12.0 17.0 0.00 0.00 0.00 81 1032.7
20180116075935 -6 279 13.0 17.0 0.00 0.00 0.00 81 1032.7
20180116075835 -6 279 14.0 17.0 0.00 0.00 0.00 81 1032.6
20180116075735 -6 283 13.0 17.0 0.00 0.00 0.00 81 1032.6
20180116075636 -6 266 12.0 16.0 0.00 0.00 0.00 81 1032.6
20180116075545 -6 279 12.0 16.0 0.00 0.00 0.00 81 1032.6
20180116075442 -6 280 13.0 16.0 0.00 0.00 0.00 81 1032.5
20180116075340 -6 281 11.0 16.0 0.00 0.00 0.00 81 1032.5
20180116075238 -6 279 8.0 16.0 0.00 0.00 0.00 81 1032.5
20180116075140 -3 286 7.0 15.0 0.00 0.00 0.00 81 1032.5
20180116075039 -3 286 7.0 15.0 0.00 0.00 0.00 81 1032.5
20180116074939 -3 286 7.0 15.0 0.00 0.00 0.00 81 1032.5
20180116074835 -3 286 7.0 15.0 0.00 0.00 0.00 81 1032.5
20180116074733 -3 286 7.0 15.0 0.00 0.00 0.00 81 1032.5
20180116074650 -3 307 8.0 15.0 0.00 0.00 0.00 81 1032.5
20180116074533 -3 290 8.0 15.0 0.00 0.00 0.00 81 1032.5
20180116074445 -3 332 9.0 15.0 0.00 0.00 0.00 81 1032.4
20180116074338 -3 276 8.0 15.0 0.00 0.00 0.00 81 1032.4
20180116074238 -3 292 9.0 15.0 0.00 0.00 0.00 81 1032.4
20180116074038 -3 301 8.0 17.0 0.00 0.00 0.00 81 1032.4
20180116073950 -3 292 9.0 17.0 0.00 0.00 0.00 81 1032.5
20180116073843 -3 277 8.0 17.0 0.00 0.00 0.00 81 1032.5
20180116073634 -3 294 9.0 17.0 0.00 0.00 0.00 81 1032.5
20180116073535 -3 313 10.0 17.0 0.00 0.00 0.00 81 1032.4
20180116073434 -3 311 10.0 17.0 0.00 0.00 0.00 81 1032.4
20180116073350 -3 288 10.0 17.0 0.00 0.00 0.00 81 1032.4
20180116073245 -3 264 10.0 15.0 0.00 0.00 0.00 81 1032.4
20180116073141 -3 274 8.0 15.0 0.00 0.00 0.00 81 1032.4
20180116073051 -3 289 7.0 15.0 0.00 0.00 0.00 81 1032.4
20180116072948 -3 307 8.0 15.0 0.00 0.00 0.00 81 1032.4
20180116072840 -3 302 9.0 15.0 0.00 0.00 0.00 81 1032.4
20180116072734 -3 311 8.0 15.0 0.00 0.00 0.00 81 1032.5
20180116072651 -3 296 8.0 15.0 0.00 0.00 0.00 81 1032.4
20180116072541 -3 270 9.0 15.0 0.00 0.00 0.00 81 1032.5
20180116072333 -3 299 8.0 15.0 0.00 0.00 0.00 81 1032.5
20180116072249 -3 327 8.0 15.0 0.00 0.00 0.00 80 1032.5
20180116072146 -3 310 9.0 16.0 0.00 0.00 0.00 81 1032.5
20180116072048 -3 268 10.0 16.0 0.00 0.00 0.00 81 1032.5
20180116071938 -3 306 9.0 16.0 0.00 0.00 0.00 81 1032.5
20180116071838 -3 275 8.0 16.0 0.00 0.00 0.00 81 1032.5
20180116071735 -3 307 8.0 16.0 0.00 0.00 0.00 81 1032.5
20180116071651 -3 279 8.0 16.0 0.00 0.00 0.00 81 1032.5
20180116071535 -3 277 8.0 16.0 0.00 0.00 0.00 81 1032.5
20180116071448 -3 300 9.0 16.0 0.00 0.00 0.00 81 1032.5
20180116071344 -3 315 11.0 16.0 0.00 0.00 0.00 81 1032.5
20180116071141 -3 304 8.0 16.0 0.00 0.00 0.00 81 1032.6
20180116071049 -3 294 9.0 16.0 0.00 0.00 0.00 81 1032.5
20180116070945 -3 297 10.0 16.0 0.00 0.00 0.00 81 1032.5
20180116070838 -3 306 11.0 15.0 0.00 0.00 0.00 81 1032.4
20180116070734 -3 303 10.0 15.0 0.00 0.00 0.00 81 1032.4
20180116070649 -3 296 9.0 15.0 0.00 0.00 0.00 81 1032.5
20180116070539 -3 290 7.0 15.0 0.00 0.00 0.00 81 1032.4
20180116070444 -3 266 8.0 15.0 0.00 0.00 0.00 81 1032.4
20180116070339 -3 284 8.0 15.0 0.00 0.00 0.00 81 1032.5
20180116070137 -3 292 8.0 15.0 0.00 0.00 0.00 81 1032.4
20180116070051 -2 302 10.0 16.0 0.00 0.00 0.00 81 1032.4
20180116070000 -2 292 9.0 16.0 0.00 0.00 0.00 81 1032.4
20180116065846 -2 286 8.0 16.0 0.00 0.00 0.00 81 1032.4
20180116065738 -2 294 9.0 16.0 0.00 0.00 0.00 81 1032.4
20180116065635 -2 293 12.0 16.0 0.00 0.00 0.00 81 1032.5
20180116065249 -3 38 17.0 21.0 0.00 0.00 0.00 81 1032.5
20180116065159 -3 38 17.0 21.0 0.00 0.00 0.00 81 1032.5
20180116065111 -3 38 17.0 21.0 0.00 0.00 0.00 81 1032.5
20180116064744 -4 290 17.0 21.0 0.00 0.00 0.00 81 1032.6
20180116064640 -4 290 17.0 21.0 0.00 0.00 0.00 81 1032.6
20180116064552 -4 290 17.0 21.0 0.00 0.00 0.00 81 1032.6
20180116064441 -4 290 17.0 21.0 0.00 0.00 0.00 81 1032.6
20180116064250 -4 273 16.0 21.0 0.00 0.00 0.00 81 1032.6
20180116064144 -4 277 17.0 21.0 0.00 0.00 0.00 81 1032.5
20180116064048 -5 276 17.0 21.0 0.00 0.00 0.00 81 1032.5
20180116063946 -5 269 16.0 21.0 0.00 0.00 0.00 82 1032.5
20180116063842 -5 278 16.0 21.0 0.00 0.00 0.00 82 1032.5
20180116063738 -5 275 14.0 19.0 0.00 0.00 0.00 82 1032.4
20180116063637 -5 262 13.0 17.0 0.00 0.00 0.00 82 1032.4
20180116063546 -5 275 14.0 17.0 0.00 0.00 0.00 82 1032.4
20180116063438 -5 267 14.0 18.0 0.00 0.00 0.00 82 1032.4
20180116063350 -5 272 13.0 19.0 0.00 0.00 0.00 82 1032.4
20180116063247 -5 279 14.0 19.0 0.00 0.00 0.00 82 1032.4
20180116063139 -5 281 15.0 19.0 0.00 0.00 0.00 82 1032.4
20180116063054 -5 284 15.0 19.0 0.00 0.00 0.00 82 1032.4
20180116063004 -5 281 14.0 19.0 0.00 0.00 0.00 81 1032.4
20180116062903 -5 275 14.0 19.0 0.00 0.00 0.00 81 1032.4
20180116062804 -5 276 15.0 19.0 0.00 0.00 0.00 81 1032.3
20180116062708 -5 279 16.0 19.0 0.00 0.00 0.00 81 1032.4
20180116062605 -5 272 15.0 19.0 0.00 0.00 0.00 81 1032.4
20180116062501 -5 277 13.0 20.0 0.00 0.00 0.00 81 1032.4
20180116062340 -5 278 12.0 20.0 0.00 0.00 0.00 81 1032.4
20180116062237 -5 266 13.0 20.0 0.00 0.00 0.00 81 1032.3
20180116062130 -5 271 13.0 20.0 0.00 0.00 0.00 81 1032.3
20180116062043 -5 271 13.0 21.0 0.00 0.00 0.00 81 1032.4
20180116061940 -5 276 14.0 21.0 0.00 0.00 0.00 81 1032.3
20180116061832 -5 275 14.0 21.0 0.00 0.00 0.00 82 1032.3
20180116061733 -5 278 15.0 21.0 0.00 0.00 0.00 82 1032.3
20180116061629 -5 279 14.0 21.0 0.00 0.00 0.00 82 1032.3
20180116061540 -5 278 15.0 21.0 0.00 0.00 0.00 82 1032.3
20180116061437 -5 280 15.0 21.0 0.00 0.00 0.00 82 1032.2
20180116061335 -5 275 15.0 21.0 0.00 0.00 0.00 82 1032.3
20180116061237 -5 284 15.0 21.0 0.00 0.00 0.00 82 1032.3
20180116061133 -5 278 14.0 18.0 0.00 0.00 0.00 82 1032.3
20180116061040 -5 289 13.0 18.0 0.00 0.00 0.00 82 1032.3
20180116060939 -5 276 14.0 18.0 0.00 0.00 0.00 82 1032.3
20180116060837 -5 280 15.0 18.0 0.00 0.00 0.00 82 1032.3
20180116060736 -5 271 15.0 18.0 0.00 0.00 0.00 82 1032.3
20180116060651 -5 267 15.0 18.0 0.00 0.00 0.00 82 1032.3
20180116060539 -5 274 15.0 18.0 0.00 0.00 0.00 82 1032.2
20180116060440 -5 273 15.0 18.0 0.00 0.00 0.00 82 1032.2
20180116060341 -5 274 14.0 18.0 0.00 0.00 0.00 82 1032.2
20180116060239 -5 277 14.0 18.0 0.00 0.00 0.00 82 1032.3
20180116060039 -5 273 14.0 17.0 0.00 0.00 0.00 82 1032.3
20180116055932 -5 273 14.0 17.0 0.00 0.00 0.00 82 1032.3
20180116055846 -5 281 14.0 17.0 0.00 0.00 0.00 82 1032.3
20180116055740 -5 269 14.0 17.0 0.00 0.00 0.00 82 1032.3
20180116055546 -5 280 15.0 17.0 0.00 0.00 0.00 82 1032.3
20180116055443 -5 275 14.0 17.0 0.00 0.00 0.00 82 1032.3
20180116055339 -5 273 14.0 17.0 0.00 0.00 0.00 82 1032.3
20180116055238 -5 273 14.0 18.0 0.00 0.00 0.00 82 1032.3
20180116055134 -5 279 15.0 18.0 0.00 0.00 0.00 82 1032.4
20180116055042 -5 275 14.0 19.0 0.00 0.00 0.00 82 1032.4
20180116054937 -5 275 12.0 19.0 0.00 0.00 0.00 82 1032.4
20180116054834 -5 279 12.0 19.0 0.00 0.00 0.00 82 1032.4
20180116054733 -5 273 13.0 19.0 0.00 0.00 0.00 82 1032.4
20180116054649 -5 277 13.0 19.0 0.00 0.00 0.00 82 1032.4
20180116054541 -5 275 15.0 19.0 0.00 0.00 0.00 81 1032.4
20180116054441 -5 281 15.0 19.0 0.00 0.00 0.00 81 1032.4
20180116054335 -5 276 14.0 19.0 0.00 0.00 0.00 81 1032.4
20180116054232 -5 271 13.0 19.0 0.00 0.00 0.00 81 1032.4
20180116054148 -5 270 13.0 18.0 0.00 0.00 0.00 81 1032.4
20180116054039 -5 309 13.0 18.0 0.00 0.00 0.00 81 1032.4
20180116053934 -5 300 14.0 18.0 0.00 0.00 0.00 81 1032.5
20180116053830 -5 277 15.0 18.0 0.00 0.00 0.00 80 1032.5
20180116053744 -5 275 15.0 22.0 0.00 0.00 0.00 80 1032.4
20180116053644 -5 275 15.0 22.0 0.00 0.00 0.00 80 1032.5
20180116053534 -5 275 15.0 22.0 0.00 0.00 0.00 80 1032.4
20180116053432 -5 277 15.0 22.0 0.00 0.00 0.00 80 1032.4
20180116053335 -5 276 14.0 22.0 0.00 0.00 0.00 80 1032.4
20180116053231 -5 274 14.0 22.0 0.00 0.00 0.00 80 1032.4
20180116053144 -5 273 15.0 22.0 0.00 0.00 0.00 80 1032.5
20180116053051 -5 277 16.0 22.0 0.00 0.00 0.00 80 1032.5
20180116052938 -5 284 17.0 22.0 0.00 0.00 0.00 81 1032.5
20180116052850 -5 288 17.0 22.0 0.00 0.00 0.00 81 1032.4
20180116052746 -5 279 16.0 22.0 0.00 0.00 0.00 81 1032.4
20180116052643 -5 279 16.0 20.0 0.00 0.00 0.00 81 1032.4
20180116052536 -5 277 16.0 20.0 0.00 0.00 0.00 81 1032.4
20180116052449 -5 290 16.0 20.0 0.00 0.00 0.00 81 1032.4
20180116052346 -5 280 16.0 21.0 0.00 0.00 0.00 81 1032.4
20180116052238 -5 281 16.0 21.0 0.00 0.00 0.00 81 1032.4
20180116052135 -5 279 15.0 21.0 0.00 0.00 0.00 81 1032.4
20180116052039 -5 279 14.0 21.0 0.00 0.00 0.00 81 1032.4
20180116051948 -5 276 15.0 21.0 0.00 0.00 0.00 81 1032.4
20180116051845 -5 287 16.0 21.0 0.00 0.00 0.00 81 1032.4
20180116051738 -5 291 17.0 21.0 0.00 0.00 0.00 81 1032.4
20180116051635 -5 284 16.0 21.0 0.00 0.00 0.00 81 1032.4
20180116051544 -5 273 15.0 21.0 0.00 0.00 0.00 81 1032.4
20180116051332 -5 278 16.0 20.0 0.00 0.00 0.00 81 1032.4
20180116051247 -5 275 16.0 21.0 0.00 0.00 0.00 81 1032.3
20180116051144 -5 279 15.0 21.0 0.00 0.00 0.00 81 1032.4
20180116051050 -4 285 16.0 21.0 0.00 0.00 0.00 81 1032.3
20180116050953 -4 268 16.0 21.0 0.00 0.00 0.00 81 1032.4
20180116050843 -4 275 17.0 21.0 0.00 0.00 0.00 81 1032.4
20180116050740 -4 276 16.0 21.0 0.00 0.00 0.00 81 1032.3
20180116050635 -4 276 17.0 21.0 0.00 0.00 0.00 81 1032.3
20180116050544 -4 278 18.0 21.0 0.00 0.00 0.00 81 1032.3
20180116050440 -4 269 18.0 21.0 0.00 0.00 0.00 81 1032.3
20180116050247 -4 276 16.0 19.0 0.00 0.00 0.00 81 1032.2
20180116050141 -4 273 16.0 19.0 0.00 0.00 0.00 81 1032.3
20180116050042 -4 276 16.0 18.0 0.00 0.00 0.00 81 1032.2
20180116045938 -4 275 15.0 18.0 0.00 0.00 0.00 81 1032.2
20180116045834 -4 276 15.0 18.0 0.00 0.00 0.00 81 1032.2
20180116045750 -4 278 15.0 18.0 0.00 0.00 0.00 81 1032.3
20180116045645 -4 273 15.0 18.0 0.00 0.00 0.00 81 1032.3
20180116045535 -4 270 15.0 18.0 0.00 0.00 0.00 81 1032.3
20180116045432 -4 271 15.0 18.0 0.00 0.00 0.00 81 1032.2
20180116045347 -4 275 15.0 18.0 0.00 0.00 0.00 81 1032.3
20180116045243 -4 275 15.0 18.0 0.00 0.00 0.00 81 1032.2
20180116045137 -4 276 15.0 17.0 0.00 0.00 0.00 81 1032.2
20180116045045 -4 275 14.0 17.0 0.00 0.00 0.00 81 1032.2
20180116044941 -4 272 14.0 19.0 0.00 0.00 0.00 81 1032.2
20180116044836 -4 269 14.0 19.0 0.00 0.00 0.00 81 1032.2
20180116044750 -4 271 14.0 21.0 0.00 0.00 0.00 81 1032.3
20180116044649 -4 271 13.0 21.0 0.00 0.00 0.00 81 1032.3
20180116044538 -4 269 12.0 21.0 0.00 0.00 0.00 80 1032.3
20180116044452 -4 267 13.0 21.0 0.00 0.00 0.00 80 1032.3
20180116044347 -4 271 15.0 21.0 0.00 0.00 0.00 81 1032.3
20180116044242 -4 273 16.0 21.0 0.00 0.00 0.00 81 1032.3
20180116044138 -4 278 18.0 21.0 0.00 0.00 0.00 81 1032.2
20180116044049 -4 278 17.0 21.0 0.00 0.00 0.00 81 1032.2
20180116043944 -4 282 17.0 21.0 0.00 0.00 0.00 81 1032.2
20180116043846 -4 274 15.0 19.0 0.00 0.00 0.00 81 1032.2
20180116043743 -4 283 15.0 19.0 0.00 0.00 0.00 81 1032.2
20180116043655 -4 279 14.0 17.0 0.00 0.00 0.00 81 1032.2
20180116043552 -4 271 13.0 17.0 0.00 0.00 0.00 81 1032.1
20180116043443 -4 273 11.0 16.0 0.00 0.00 0.00 81 1032.2
20180116043339 -4 269 11.0 18.0 0.00 0.00 0.00 81 1032.2
20180116043235 -4 275 12.0 18.0 0.00 0.00 0.00 81 1032.2
20180116043042 -4 259 13.0 18.0 0.00 0.00 0.00 81 1032.2
20180116042934 -4 273 14.0 18.0 0.00 0.00 0.00 81 1032.1
20180116042849 -4 278 14.0 18.0 0.00 0.00 0.00 81 1032.1
20180116042743 -4 261 14.0 18.0 0.00 0.00 0.00 81 1032.0
20180116042639 -4 271 14.0 18.0 0.00 0.00 0.00 81 1032.0
20180116042548 -4 280 15.0 18.0 0.00 0.00 0.00 81 1032.0
20180116042437 -4 268 14.0 18.0 0.00 0.00 0.00 81 1032.0
20180116042334 -4 273 14.0 18.0 0.00 0.00 0.00 81 1032.1
20180116042249 -4 274 13.0 18.0 0.00 0.00 0.00 81 1032.1
20180116042145 -4 275 13.0 18.0 0.00 0.00 0.00 81 1032.1
20180116042035 -4 269 13.0 18.0 0.00 0.00 0.00 81 1032.1
20180116041950 -4 276 14.0 18.0 0.00 0.00 0.00 81 1032.1
20180116041737 -4 277 15.0 19.0 0.00 0.00 0.00 81 1032.0
20180116041651 -4 271 15.0 19.0 0.00 0.00 0.00 81 1032.0
20180116041542 -4 270 15.0 19.0 0.00 0.00 0.00 81 1031.9
20180116041436 -4 261 15.0 19.0 0.00 0.00 0.00 81 1031.9
20180116041333 -4 268 16.0 19.0 0.00 0.00 0.00 81 1031.9
20180116041247 -4 292 15.0 19.0 0.00 0.00 0.00 81 1031.9
20180116041140 -4 282 16.0 19.0 0.00 0.00 0.00 81 1031.9
20180116041039 -4 277 17.0 19.0 0.00 0.00 0.00 81 1031.8
20180116040935 -3 279 16.0 21.0 0.00 0.00 0.00 81 1031.9
20180116040750 -3 280 14.0 21.0 0.00 0.00 0.00 81 1031.8
20180116040645 -3 279 15.0 21.0 0.00 0.00 0.00 82 1031.8
20180116040532 -3 278 15.0 21.0 0.00 0.00 0.00 82 1031.8
20180116040447 -3 277 15.0 21.0 0.00 0.00 0.00 82 1031.8
20180116040342 -3 284 15.0 21.0 0.00 0.00 0.00 82 1031.8
20180116040238 -4 276 15.0 21.0 0.00 0.00 0.00 82 1031.8
20180116040154 -4 275 15.0 21.0 0.00 0.00 0.00 82 1031.9
20180116040037 -4 280 14.0 19.0 0.00 0.00 0.00 82 1031.8
20180116035950 -4 270 13.0 20.0 0.00 0.00 0.00 82 1031.8
20180116035844 -4 280 13.0 20.0 0.00 0.00 0.00 82 1031.8
20180116035735 -4 287 13.0 20.0 0.00 0.00 0.00 82 1031.8
20180116035645 -4 279 14.0 20.0 0.00 0.00 0.00 81 1031.8
20180116035445 -4 277 14.0 20.0 0.00 0.00 0.00 81 1031.8
20180116035254 -4 269 14.0 20.0 0.00 0.00 0.00 81 1031.8
20180116035152 -4 277 15.0 21.0 0.00 0.00 0.00 81 1031.8
20180116035038 -4 275 15.0 21.0 0.00 0.00 0.00 81 1031.8
20180116034935 -4 275 16.0 21.0 0.00 0.00 0.00 81 1031.8
20180116034849 -3 275 16.0 21.0 0.00 0.00 0.00 81 1031.8
20180116034743 -4 279 15.0 21.0 0.00 0.00 0.00 81 1031.8
20180116034651 -4 268 16.0 21.0 0.00 0.00 0.00 81 1031.7
20180116034536 -4 269 17.0 21.0 0.00 0.00 0.00 81 1031.7
20180116034450 -4 280 17.0 21.0 0.00 0.00 0.00 81 1031.6
20180116034349 -4 272 18.0 21.0 0.00 0.00 0.00 81 1031.7
20180116034241 -4 279 18.0 21.0 0.00 0.00 0.00 81 1031.6
20180116034138 -4 271 17.0 21.0 0.00 0.00 0.00 81 1031.5
20180116034044 -4 277 16.0 21.0 0.00 0.00 0.00 81 1031.6
20180116033836 -4 273 16.0 21.0 0.00 0.00 0.00 81 1031.6
20180116033749 -4 279 17.0 21.0 0.00 0.00 0.00 81 1031.5
20180116033645 -4 271 15.0 19.0 0.00 0.00 0.00 81 1031.5
20180116033539 -4 274 15.0 19.0 0.00 0.00 0.00 81 1031.6
20180116033436 -4 271 15.0 18.0 0.00 0.00 0.00 81 1031.6
20180116033351 -4 273 13.0 17.0 0.00 0.00 0.00 81 1031.6
20180116033248 -4 276 13.0 18.0 0.00 0.00 0.00 80 1031.6
20180116033141 -4 279 14.0 18.0 0.00 0.00 0.00 80 1031.6
20180116033049 -4 275 14.0 18.0 0.00 0.00 0.00 80 1031.6
20180116032943 -4 284 14.0 18.0 0.00 0.00 0.00 80 1031.6
20180116032842 -4 273 14.0 18.0 0.00 0.00 0.00 80 1031.5
20180116032737 -4 281 14.0 18.0 0.00 0.00 0.00 80 1031.5
20180116032647 -4 283 15.0 18.0 0.00 0.00 0.00 80 1031.5
20180116032552 -4 279 15.0 18.0 0.00 0.00 0.00 80 1031.5
20180116032446 -4 291 15.0 18.0 0.00 0.00 0.00 80 1031.5
20180116032341 -4 270 14.0 17.0 0.00 0.00 0.00 80 1031.5
20180116032235 -4 279 14.0 17.0 0.00 0.00 0.00 80 1031.5
20180116032148 -4 290 13.0 18.0 0.00 0.00 0.00 80 1031.5
20180116032041 -4 282 14.0 18.0 0.00 0.00 0.00 80 1031.4
20180116031936 -4 278 13.0 18.0 0.00 0.00 0.00 80 1031.4
20180116031849 -4 277 13.0 18.0 0.00 0.00 0.00 80 1031.4
20180116031736 -4 282 13.0 18.0 0.00 0.00 0.00 80 1031.4
20180116031651 -4 281 13.0 18.0 0.00 0.00 0.00 80 1031.4
20180116031541 -4 277 14.0 18.0 0.00 0.00 0.00 80 1031.3
20180116031438 -4 274 14.0 19.0 0.00 0.00 0.00 80 1031.3
20180116031333 -4 283 14.0 19.0 0.00 0.00 0.00 80 1031.3
20180116031248 -4 277 14.0 19.0 0.00 0.00 0.00 80 1031.3
20180116031139 -4 277 14.0 19.0 0.00 0.00 0.00 80 1031.3
20180116031046 -4 284 15.0 19.0 0.00 0.00 0.00 80 1031.3
20180116030942 -4 267 16.0 19.0 0.00 0.00 0.00 80 1031.3
20180116030839 -4 275 16.0 19.0 0.00 0.00 0.00 80 1031.3
20180116030651 -4 277 15.0 21.0 0.00 0.00 0.00 80 1031.3
20180116030559 -4 274 14.0 21.0 0.00 0.00 0.00 80 1031.3
20180116030450 -3 282 15.0 21.0 0.00 0.00 0.00 80 1031.3
20180116030346 -3 274 15.0 21.0 0.00 0.00 0.00 80 1031.4
20180116030249 -3 273 15.0 21.0 0.00 0.00 0.00 80 1031.3
20180116030143 -3 278 15.0 21.0 0.00 0.00 0.00 80 1031.4
20180116030050 -3 275 16.0 21.0 0.00 0.00 0.00 80 1031.3
20180116025951 -3 271 17.0 21.0 0.00 0.00 0.00 80 1031.4
20180116025837 -3 275 16.0 21.0 0.00 0.00 0.00 80 1031.3
20180116025733 -3 281 16.0 21.0 0.00 0.00 0.00 80 1031.4
20180116025633 -3 274 16.0 19.0 0.00 0.00 0.00 80 1031.4
20180116025541 -3 284 16.0 19.0 0.00 0.00 0.00 80 1031.3
20180116025438 -3 275 15.0 19.0 0.00 0.00 0.00 80 1031.3
20180116025334 -3 284 15.0 19.0 0.00 0.00 0.00 80 1031.3
20180116025249 -3 285 15.0 20.0 0.00 0.00 0.00 80 1031.3
20180116025144 -3 278 16.0 20.0 0.00 0.00 0.00 80 1031.3
20180116025048 -3 282 16.0 21.0 0.00 0.00 0.00 80 1031.3
20180116024847 -3 278 15.0 21.0 0.00 0.00 0.00 80 1031.3
20180116024743 -3 286 15.0 19.0 0.00 0.00 0.00 80 1031.2
20180116024351 -1 38 14.0 19.0 0.00 0.00 0.00 81 1031.2
20180116024244 -1 38 14.0 19.0 0.00 0.00 0.00 81 1031.2
20180116024135 -1 38 14.0 19.0 0.00 0.00 0.00 81 1031.2
20180116024046 -1 38 14.0 19.0 0.00 0.00 0.00 81 1031.2
20180116023941 -1 40 12.0 19.0 0.00 0.00 0.00 81 1031.2
20180116023834 -1 32 14.0 20.0 0.00 0.00 0.00 81 1031.2
20180116023747 -1 34 15.0 20.0 0.00 0.00 0.00 81 1031.3
20180116023642 -1 38 14.0 20.0 0.00 0.00 0.00 81 1031.2
20180116023550 -1 21 13.0 20.0 0.00 0.00 0.00 81 1031.2
20180116023446 -1 42 13.0 20.0 0.00 0.00 0.00 81 1031.2
20180116023341 -1 34 14.0 20.0 0.00 0.00 0.00 81 1031.1
20180116023240 -1 5 14.0 20.0 0.00 0.00 0.00 81 1031.2
20180116023136 -1 26 14.0 20.0 0.00 0.00 0.00 81 1031.1
20180116023040 -1 44 15.0 20.0 0.00 0.00 0.00 81 1031.2
20180116022935 -1 46 15.0 20.0 0.00 0.00 0.00 81 1031.2
20180116022852 -1 45 14.0 20.0 0.00 0.00 0.00 81 1031.2
20180116022748 -1 39 14.0 20.0 0.00 0.00 0.00 81 1031.2
20180116022642 -1 36 15.0 20.0 0.00 0.00 0.00 81 1031.2
20180116022532 -1 59 13.0 22.0 0.00 0.00 0.00 81 1031.2
20180116022433 -1 5 12.0 22.0 0.00 0.00 0.00 81 1031.2
20180116022348 -1 24 13.0 22.0 0.00 0.00 0.00 81 1031.2
20180116022240 -1 60 14.0 22.0 0.00 0.00 0.00 81 1031.2
20180116022150 -1 38 15.0 22.0 0.00 0.00 0.00 81 1031.2
20180116022034 -1 355 15.0 22.0 0.00 0.00 0.00 81 1031.3
20180116021950 -1 40 15.0 22.0 0.00 0.00 0.00 81 1031.2
20180116021845 -1 34 14.0 22.0 0.00 0.00 0.00 81 1031.3
20180116021742 -1 35 13.0 22.0 0.00 0.00 0.00 81 1031.2
20180116021637 -1 9 13.0 21.0 0.00 0.00 0.00 81 1031.1
20180116021543 -1 34 14.0 21.0 0.00 0.00 0.00 81 1031.2
20180116021439 -1 44 15.0 21.0 0.00 0.00 0.00 81 1031.2
20180116021333 -1 29 15.0 21.0 0.00 0.00 0.00 81 1031.1
20180116021142 -1 46 15.0 21.0 0.00 0.00 0.00 81 1031.1
20180116021050 -1 34 15.0 22.0 0.00 0.00 0.00 81 1031.1
20180116020945 -1 41 16.0 22.0 0.00 0.00 0.00 81 1031.1
20180116020845 -1 61 16.0 22.0 0.00 0.00 0.00 81 1031.1
20180116020739 -1 24 14.0 23.0 0.00 0.00 0.00 81 1031.1
20180116020632 -1 24 13.0 23.0 0.00 0.00 0.00 81 1031.1
20180116020543 -1 14 13.0 23.0 0.00 0.00 0.00 81 1031.0
20180116020436 -1 26 13.0 23.0 0.00 0.00 0.00 81 1031.1
20180116020350 -1 41 14.0 23.0 0.00 0.00 0.00 81 1031.0
20180116020307 -1 28 15.0 23.0 0.00 0.00 0.00 81 1031.0
20180116020221 -1 44 15.0 23.0 0.00 0.00 0.00 81 1031.1
20180116015933 -1 52 16.0 23.0 0.00 0.00 0.00 81 1031.1
20180116015847 -1 44 16.0 23.0 0.00 0.00 0.00 81 1031.1
20180116015745 -1 63 16.0 21.0 0.00 0.00 0.00 81 1031.0
20180116015444 0 38 17.0 22.0 0.00 0.00 0.00 81 1031.1
20180116015336 0 44 16.0 22.0 0.00 0.00 0.00 81 1031.1
20180116015234 0 30 16.0 22.0 0.00 0.00 0.00 81 1031.1
20180116015147 0 45 17.0 22.0 0.00 0.00 0.00 81 1031.1
20180116015034 0 20 17.0 22.0 0.00 0.00 0.00 81 1031.1
20180116014844 0 18 17.0 22.0 0.00 0.00 0.00 81 1031.1
20180116014738 0 37 16.0 21.0 0.00 0.00 0.00 81 1031.1
20180116014635 0 38 16.0 21.0 0.00 0.00 0.00 81 1031.2
20180116014546 0 38 14.0 21.0 0.00 0.00 0.00 81 1031.2
20180116014443 0 36 14.0 21.0 0.00 0.00 0.00 80 1031.2
20180116014333 0 47 15.0 22.0 0.00 0.00 0.00 80 1031.2
20180116014243 0 40 15.0 22.0 0.00 0.00 0.00 80 1031.2
20180116014044 0 43 13.0 22.0 0.00 0.00 0.00 80 1031.2
20180116013941 0 34 13.0 22.0 0.00 0.00 0.00 80 1031.2
20180116013835 0 44 14.0 25.0 0.00 0.00 0.00 80 1031.2
20180116013732 0 49 16.0 25.0 0.00 0.00 0.00 81 1031.2
20180116013647 0 38 17.0 25.0 0.00 0.00 0.00 81 1031.2
20180116013549 0 37 17.0 25.0 0.00 0.00 0.00 81 1031.3
20180116013444 0 35 16.0 25.0 0.00 0.00 0.00 81 1031.3
20180116013338 0 36 17.0 25.0 0.00 0.00 0.00 81 1031.3
20180116013232 0 43 16.0 25.0 0.00 0.00 0.00 81 1031.3
20180116013148 0 25 16.0 25.0 0.00 0.00 0.00 81 1031.3
20180116013033 0 50 16.0 25.0 0.00 0.00 0.00 81 1031.2
20180116012932 0 28 15.0 18.0 0.00 0.00 0.00 81 1031.2
20180116012843 0 38 15.0 18.0 0.00 0.00 0.00 81 1031.2
20180116012634 0 31 12.0 18.0 0.00 0.00 0.00 81 1031.2
20180116012538 0 22 12.0 19.0 0.00 0.00 0.00 81 1031.2
20180116012433 0 46 12.0 19.0 0.00 0.00 0.00 81 1031.3
20180116012348 0 30 13.0 19.0 0.00 0.00 0.00 81 1031.2
20180116012244 0 5 12.0 19.0 0.00 0.00 0.00 81 1031.2
20180116012145 0 24 11.0 20.0 0.00 0.00 0.00 81 1031.1
20180116012033 0 36 13.0 20.0 0.00 0.00 0.00 81 1031.2
20180116011948 0 20 13.0 20.0 0.00 0.00 0.00 81 1031.2
20180116011843 0 22 13.0 20.0 0.00 0.00 0.00 81 1031.1
20180116011735 0 42 14.0 20.0 0.00 0.00 0.00 81 1031.1
20180116011647 0 33 14.0 21.0 0.00 0.00 0.00 81 1031.1
20180116011534 0 21 14.0 21.0 0.00 0.00 0.00 81 1031.0
20180116011447 0 46 14.0 21.0 0.00 0.00 0.00 81 1031.0
20180116011345 0 46 15.0 21.0 0.00 0.00 0.00 81 1031.0
20180116011241 0 45 17.0 22.0 0.00 0.00 0.00 81 1031.0
20180116011159 0 40 19.0 22.0 0.00 0.00 0.00 79 1031.1
20180116011034 -1 275 19.0 22.0 0.00 0.00 0.00 79 1031.0
20180116010946 -1 275 19.0 22.0 0.00 0.00 0.00 79 1031.1
20180116010844 -1 275 19.0 22.0 0.00 0.00 0.00 79 1031.0
20180116010739 -1 275 19.0 22.0 0.00 0.00 0.00 79 1030.9
20180116010637 -1 275 19.0 22.0 0.00 0.00 0.00 79 1030.9
20180116010533 -1 274 19.0 22.0 0.00 0.00 0.00 79 1030.8
20180116010443 -1 277 18.0 22.0 0.00 0.00 0.00 79 1030.8
20180116010401 -1 279 18.0 23.0 0.00 0.00 0.00 79 1030.8
20180116010254 -1 280 18.0 23.0 0.00 0.00 0.00 79 1030.8
20180116010143 -1 269 18.0 23.0 0.00 0.00 0.00 80 1030.8
20180116010031 -1 288 17.0 23.0 0.00 0.00 0.00 80 1030.9
20180116005948 -1 279 16.0 23.0 0.00 0.00 0.00 80 1030.8
20180116005842 -1 269 17.0 23.0 0.00 0.00 0.00 80 1030.8
20180116005734 -1 269 18.0 23.0 0.00 0.00 0.00 80 1030.8
20180116005637 -1 283 18.0 23.0 0.00 0.00 0.00 80 1030.8
20180116005529 -1 273 17.0 21.0 0.00 0.00 0.00 80 1030.8
20180116005444 -1 269 16.0 21.0 0.00 0.00 0.00 80 1030.9
20180116005342 -1 273 15.0 21.0 0.00 0.00 0.00 80 1030.9
20180116005243 -1 279 15.0 21.0 0.00 0.00 0.00 80 1030.9
20180116005142 -1 276 17.0 21.0 0.00 0.00 0.00 81 1030.8
20180116005035 -1 273 16.0 21.0 0.00 0.00 0.00 81 1030.8
20180116004939 -1 273 15.0 21.0 0.00 0.00 0.00 81 1030.8
20180116004839 -1 279 15.0 21.0 0.00 0.00 0.00 81 1030.8
20180116004736 -1 268 16.0 21.0 0.00 0.00 0.00 80 1030.7
20180116004634 -1 276 17.0 21.0 0.00 0.00 0.00 80 1030.7
20180116004546 -1 276 16.0 21.0 0.00 0.00 0.00 80 1030.7
20180116004446 -1 271 15.0 22.0 0.00 0.00 0.00 80 1030.7
20180116004329 -1 284 16.0 22.0 0.00 0.00 0.00 80 1030.7
20180116004244 -1 286 17.0 22.0 0.00 0.00 0.00 80 1030.6
20180116004143 -1 275 17.0 22.0 0.00 0.00 0.00 80 1030.6
20180116004033 -1 273 17.0 23.0 0.00 0.00 0.00 80 1030.6
20180116003931 -1 282 17.0 24.0 0.00 0.00 0.00 80 1030.6
20180116003846 -1 273 17.0 24.0 0.00 0.00 0.00 79 1030.6
20180116003747 -1 278 16.0 24.0 0.00 0.00 0.00 79 1030.6
20180116003630 -1 274 16.0 24.0 0.00 0.00 0.00 79 1030.6
20180116003542 -1 279 16.0 24.0 0.00 0.00 0.00 79 1030.5
20180116003435 -1 277 17.0 24.0 0.00 0.00 0.00 79 1030.5
20180116003332 -1 279 19.0 24.0 0.00 0.00 0.00 79 1030.5
20180116003232 -1 280 20.0 24.0 0.00 0.00 0.00 79 1030.5
20180116003131 -1 277 19.0 24.0 0.00 0.00 0.00 79 1030.4
20180116003040 -1 280 18.0 24.0 0.00 0.00 0.00 79 1030.4
20180116002937 -1 277 18.0 24.0 0.00 0.00 0.00 79 1030.4
20180116002840 -1 287 19.0 24.0 0.00 0.00 0.00 79 1030.4
20180116002739 -1 284 20.0 24.0 0.00 0.00 0.00 79 1030.5
20180116002639 -1 290 20.0 24.0 0.00 0.00 0.00 79 1030.4
20180116002546 -1 284 19.0 24.0 0.00 0.00 0.00 79 1030.4
20180116002445 -1 282 18.0 24.0 0.00 0.00 0.00 79 1030.4
20180116002345 -1 281 19.0 24.0 0.00 0.00 0.00 79 1030.4
20180116002229 -1 274 19.0 24.0 0.00 0.00 0.00 79 1030.4
20180116002144 -1 287 19.0 24.0 0.00 0.00 0.00 78 1030.4
20180116002037 -1 279 18.0 23.0 0.00 0.00 0.00 78 1030.4
20180116001935 -1 275 18.0 23.0 0.00 0.00 0.00 78 1030.5
20180116001733 -1 271 18.0 23.0 0.00 0.00 0.00 78 1030.5
20180116001632 -1 277 19.0 23.0 0.00 0.00 0.00 78 1030.5
20180116001542 -1 277 19.0 23.0 0.00 0.00 0.00 78 1030.4
20180116001446 -1 297 19.0 23.0 0.00 0.00 0.00 78 1030.4
20180116001343 -1 275 19.0 23.0 0.00 0.00 0.00 78 1030.3
20180116001234 -1 276 19.0 23.0 0.00 0.00 0.00 78 1030.4
20180116001131 -1 269 18.0 23.0 0.00 0.00 0.00 78 1030.4
20180116001028 -1 276 17.0 23.0 0.00 0.00 0.00 78 1030.5
20180116000844 -1 274 18.0 23.0 0.00 0.00 0.00 78 1030.4
20180116000746 -1 278 18.0 22.0 0.00 0.00 0.00 78 1030.3
20180116000707 -1 279 18.0 25.0 0.00 0.00 0.00 78 1030.3
20180116000039 0 275 18.0 25.0 0.00 0.00 0.00 78 1030.3
20180115235936 0 278 18.0 25.0 0.00 0.00 0.00 78 1030.2
20180115235834 0 302 18.0 25.0 0.00 0.00 0.00 78 1030.2
20180115235747 0 288 18.0 24.0 0.00 0.00 0.00 78 1030.2
20180115235645 0 275 19.0 24.0 0.00 0.00 0.00 78 1030.2
20180115235538 0 272 19.0 24.0 0.00 0.00 0.00 78 1030.3
20180115235442 0 277 17.0 24.0 0.00 0.00 0.00 79 1030.3
20180115235341 0 285 16.0 22.0 0.00 0.00 0.00 79 1030.3
20180115235239 0 283 15.0 25.0 0.00 0.00 0.00 79 1030.3
20180115235131 0 277 16.0 25.0 0.00 0.00 0.00 79 1030.3
20180115235045 0 275 17.0 25.0 0.00 0.00 0.00 79 1030.3
20180115234938 0 275 18.0 25.0 0.00 0.00 0.00 79 1030.3
20180115234833 0 285 18.0 25.0 0.00 0.00 0.00 80 1030.3
20180115234737 0 277 17.0 25.0 0.00 0.00 0.00 80 1030.3
20180115234636 0 274 19.0 25.0 0.00 0.00 0.00 80 1030.3
20180115234546 0 273 19.0 25.0 0.00 0.00 0.00 80 1030.3
20180115234445 0 276 14.0 26.0 0.00 0.00 0.00 80 1030.3
20180115234344 0 277 11.0 26.0 0.00 0.00 0.00 82 1030.2
20180115234241 2 296 9.0 16.0 0.00 0.00 0.00 82 1030.3
20180115234139 2 296 9.0 16.0 0.00 0.00 0.00 82 1030.3
20180115234046 2 296 8.0 16.0 0.00 0.00 0.00 82 1030.2
20180115233945 2 292 8.0 16.0 0.00 0.00 0.00 82 1030.2
20180115233845 2 292 7.0 16.0 0.00 0.00 0.00 82 1030.2
20180115233742 2 275 9.0 16.0 0.00 0.00 0.00 82 1030.1
20180115233641 2 291 11.0 16.0 0.00 0.00 0.00 82 1030.0
20180115233533 2 298 9.0 16.0 0.00 0.00 0.00 82 1030.0
20180115233433 2 284 10.0 16.0 0.00 0.00 0.00 82 1030.0
20180115233336 2 284 10.0 16.0 0.00 0.00 0.00 82 1030.0
20180115233232 2 290 9.0 16.0 0.00 0.00 0.00 82 1030.0
20180115233131 2 280 8.0 16.0 0.00 0.00 0.00 82 1029.9
20180115233044 2 288 9.0 16.0 0.00 0.00 0.00 82 1029.9
20180115232942 2 284 9.0 16.0 0.00 0.00 0.00 82 1029.9
20180115232842 2 297 10.0 16.0 0.00 0.00 0.00 82 1029.9
20180115232740 2 297 11.0 16.0 0.00 0.00 0.00 82 1029.9
20180115232645 2 298 10.0 16.0 0.00 0.00 0.00 82 1029.9
20180115232533 2 279 9.0 16.0 0.00 0.00 0.00 82 1029.9
20180115232431 2 275 10.0 15.0 0.00 0.00 0.00 81 1029.9
20180115232345 2 288 9.0 15.0 0.00 0.00 0.00 81 1029.9
20180115232242 2 273 9.0 14.0 0.00 0.00 0.00 81 1029.9
20180115232140 2 279 9.0 16.0 0.00 0.00 0.00 81 1029.9
20180115232030 2 290 9.0 16.0 0.00 0.00 0.00 82 1029.9
20180115231929 3 273 8.0 16.0 0.00 0.00 0.00 81 1029.8
20180115231829 3 270 8.0 16.0 0.00 0.00 0.00 81 1029.8
20180115231741 3 292 8.0 16.0 0.00 0.00 0.00 81 1029.8
20180115231641 3 303 8.0 16.0 0.00 0.00 0.00 81 1029.8
20180115231533 3 276 8.0 16.0 0.00 0.00 0.00 81 1029.8
20180115231433 3 286 10.0 16.0 0.00 0.00 0.00 81 1029.8
20180115231328 3 284 10.0 16.0 0.00 0.00 0.00 81 1029.8
20180115231241 3 281 11.0 16.0 0.00 0.00 0.00 81 1029.8
20180115231138 3 252 9.0 15.0 0.00 0.00 0.00 81 1029.7
20180115231030 3 276 9.0 15.0 0.00 0.00 0.00 81 1029.7
20180115230929 3 286 8.0 16.0 0.00 0.00 0.00 81 1029.7
20180115230828 3 299 7.0 16.0 0.00 0.00 0.00 81 1029.7
20180115230742 3 294 9.0 17.0 0.00 0.00 0.00 81 1029.7
20180115230641 3 297 9.0 17.0 0.00 0.00 0.00 81 1029.6
20180115230537 3 304 10.0 17.0 0.00 0.00 0.00 81 1029.7
20180115230437 3 305 10.0 17.0 0.00 0.00 0.00 81 1029.8
20180115230334 3 276 9.0 17.0 0.00 0.00 0.00 81 1029.7
20180115230235 3 277 11.0 17.0 0.00 0.00 0.00 81 1029.6
20180115230133 3 281 11.0 17.0 0.00 0.00 0.00 81 1029.6
20180115230046 3 301 10.0 17.0 0.00 0.00 0.00 81 1029.6
20180115225944 3 277 10.0 17.0 0.00 0.00 0.00 81 1029.6
20180115225844 3 272 8.0 18.0 0.00 0.00 0.00 81 1029.6
20180115225741 3 277 8.0 20.0 0.00 0.00 0.00 81 1029.6
20180115225639 3 295 11.0 20.0 0.00 0.00 0.00 81 1029.6
20180115225547 3 297 11.0 20.0 0.00 0.00 0.00 81 1029.6
20180115225446 3 293 8.0 20.0 0.00 0.00 0.00 81 1029.6
20180115225345 3 311 8.0 20.0 0.00 0.00 0.00 81 1029.6
20180115225240 3 292 8.0 20.0 0.00 0.00 0.00 81 1029.6
20180115225143 3 282 9.0 20.0 0.00 0.00 0.00 81 1029.5
20180115225033 3 279 11.0 20.0 0.00 0.00 0.00 82 1029.5
20180115224930 3 271 11.0 20.0 0.00 0.00 0.00 82 1029.5
20180115224845 3 317 10.0 18.0 0.00 0.00 0.00 82 1029.4
20180115224743 3 281 8.0 17.0 0.00 0.00 0.00 82 1029.4
20180115224642 3 292 10.0 16.0 0.00 0.00 0.00 82 1029.4
20180115224533 3 265 11.0 16.0 0.00 0.00 0.00 82 1029.4
20180115224435 3 296 11.0 16.0 0.00 0.00 0.00 82 1029.3
20180115224329 3 262 10.0 16.0 0.00 0.00 0.00 82 1029.3
20180115224244 3 308 9.0 16.0 0.00 0.00 0.00 82 1029.3
20180115224143 4 298 9.0 19.0 0.00 0.00 0.00 82 1029.3
20180115224051 4 302 9.0 19.0 0.00 0.00 0.00 82 1029.3
20180115223946 4 304 9.0 19.0 0.00 0.00 0.00 81 1029.3
20180115223845 4 275 9.0 19.0 0.00 0.00 0.00 81 1029.3
20180115223728 4 259 9.0 19.0 0.00 0.00 0.00 81 1029.3
20180115223628 4 267 8.0 19.0 0.00 0.00 0.00 81 1029.2
20180115223542 4 274 10.0 19.0 0.00 0.00 0.00 81 1029.3
20180115223441 4 304 13.0 20.0 0.00 0.00 0.00 81 1029.2
20180115223339 4 309 13.0 20.0 0.00 0.00 0.00 82 1029.2
20180115223238 4 287 10.0 20.0 0.00 0.00 0.00 82 1029.2
20180115223136 4 300 9.0 20.0 0.00 0.00 0.00 82 1029.2
20180115223038 4 295 10.0 20.0 0.00 0.00 0.00 82 1029.2
20180115222939 4 270 11.0 20.0 0.00 0.00 0.00 82 1029.2
20180115222837 4 257 12.0 20.0 0.00 0.00 0.00 82 1029.2
20180115222738 4 290 11.0 20.0 0.00 0.00 0.00 82 1029.1
20180115222634 4 303 12.0 20.0 0.00 0.00 0.00 82 1029.0
20180115222528 4 238 11.0 20.0 0.00 0.00 0.00 82 1029.0
20180115222448 4 298 11.0 20.0 0.00 0.00 0.00 82 1029.0
20180115222328 4 285 11.0 20.0 0.00 0.00 0.00 82 1029.0
20180115222229 4 281 12.0 20.0 0.00 0.00 0.00 82 1029.1
20180115222144 4 301 12.0 20.0 0.00 0.00 0.00 82 1029.0
20180115222037 4 298 13.0 20.0 0.00 0.00 0.00 82 1029.0
20180115221937 4 282 12.0 22.0 0.00 0.00 0.00 82 1029.0
20180115221835 4 273 10.0 22.0 0.00 0.00 0.00 81 1028.9
20180115221732 4 279 10.0 22.0 0.00 0.00 0.00 81 1028.9
20180115221633 4 289 11.0 22.0 0.00 0.00 0.00 81 1028.9
20180115221544 4 257 12.0 22.0 0.00 0.00 0.00 82 1028.9
20180115221441 4 275 13.0 22.0 0.00 0.00 0.00 82 1028.9
20180115221336 4 288 13.0 22.0 0.00 0.00 0.00 82 1028.8
20180115221232 4 279 12.0 22.0 0.00 0.00 0.00 82 1028.7
20180115221150 4 284 12.0 22.0 0.00 0.00 0.00 82 1028.7
20180115221040 4 287 14.0 22.0 0.00 0.00 0.00 82 1028.7
20180115220936 4 278 13.0 22.0 0.00 0.00 0.00 82 1028.6
20180115220848 4 295 13.0 22.0 0.00 0.00 0.00 82 1028.6
20180115220742 4 291 13.0 22.0 0.00 0.00 0.00 82 1028.6
20180115220639 4 281 13.0 22.0 0.00 0.00 0.00 82 1028.6
20180115220547 4 278 12.0 22.0 0.00 0.00 0.00 82 1028.6
20180115220446 4 313 11.0 22.0 0.00 0.00 0.00 82 1028.5
20180115220341 4 279 11.0 22.0 0.00 0.00 0.00 82 1028.6
20180115220256 4 292 10.0 22.0 0.00 0.00 0.00 82 1028.5
20180115220214 4 288 13.0 22.0 0.00 0.00 0.00 82 1028.5
20180115220041 4 303 15.0 23.0 0.00 0.00 0.00 82 1028.5
20180115215931 5 290 11.0 23.0 0.00 0.00 0.00 82 1028.5
20180115215846 5 290 11.0 23.0 0.00 0.00 0.00 82 1028.5
20180115215742 5 272 12.0 23.0 0.00 0.00 0.00 82 1028.5
20180115215639 5 264 14.0 23.0 0.00 0.00 0.00 83 1028.4
20180115215550 5 295 14.0 23.0 0.00 0.00 0.00 83 1028.4
20180115215443 5 288 14.0 23.0 0.00 0.00 0.00 83 1028.4
20180115215340 5 298 13.0 23.0 0.00 0.00 0.00 83 1028.4
20180115215241 5 277 12.0 23.0 0.00 0.00 0.00 83 1028.3
20180115215136 5 306 11.0 19.0 0.00 0.00 0.00 83 1028.2
20180115215045 5 294 11.0 19.0 0.00 0.00 0.00 83 1028.2
20180115214938 5 281 12.0 19.0 0.00 0.00 0.00 83 1028.2
20180115214850 5 302 12.0 19.0 0.00 0.00 0.00 83 1028.2
20180115214745 5 282 11.0 20.0 0.00 0.00 0.00 84 1028.2
20180115214639 5 291 10.0 20.0 0.00 0.00 0.00 83 1028.2
20180115214531 5 291 10.0 20.0 0.00 0.00 0.00 83 1028.2
20180115214446 5 296 11.0 20.0 0.00 0.00 0.00 83 1028.2
20180115214343 5 295 10.0 23.0 0.00 0.00 0.00 83 1028.1
20180115214235 5 300 9.0 23.0 0.00 0.00 0.00 83 1028.1
20180115214131 5 316 14.0 23.0 0.00 0.00 0.00 83 1028.1
20180115214033 5 289 16.0 23.0 0.00 0.00 0.00 83 1028.1
20180115213945 5 296 16.0 23.0 0.00 0.00 0.00 83 1028.0
20180115213838 5 296 16.0 23.0 0.00 0.00 0.00 83 1028.0
20180115213634 5 296 16.0 23.0 0.00 0.00 0.00 83 1028.0
20180115213540 5 296 13.0 23.0 0.00 0.00 0.00 83 1028.0
20180115213435 5 277 14.0 23.0 0.00 0.00 0.00 83 1028.0
20180115213332 5 284 15.0 23.0 0.00 0.00 0.00 83 1027.9
20180115213245 5 286 14.0 23.0 0.00 0.00 0.00 83 1028.0
20180115213140 5 262 13.0 26.0 0.00 0.00 0.00 83 1027.9
20180115213048 5 309 13.0 26.0 0.00 0.00 0.00 83 1028.0
20180115212946 5 294 12.0 26.0 0.00 0.00 0.00 83 1027.9
20180115212840 5 297 12.0 26.0 0.00 0.00 0.00 83 1028.0
20180115212735 5 279 11.0 26.0 0.00 0.00 0.00 83 1027.9
20180115212648 5 298 12.0 26.0 0.00 0.00 0.00 83 1027.9
20180115212539 5 294 14.0 26.0 0.00 0.00 0.00 83 1027.8
20180115212434 5 313 14.0 26.0 0.00 0.00 0.00 83 1027.8
20180115212351 5 292 13.0 26.0 0.00 0.00 0.00 82 1027.7
20180115212245 5 303 12.0 21.0 0.00 0.00 0.00 83 1027.7
20180115211834 5 253 12.0 21.0 0.00 0.00 0.00 83 1027.6
20180115211748 5 253 12.0 21.0 0.00 0.00 0.00 83 1027.7
20180115211639 5 253 13.0 21.0 0.00 0.00 0.00 83 1027.7
20180115211544 5 292 13.0 21.0 0.00 0.00 0.00 83 1027.7
20180115211437 5 283 13.0 21.0 0.00 0.00 0.00 83 1027.7
20180115211333 5 300 11.0 21.0 0.00 0.00 0.00 83 1027.7
20180115211231 5 258 10.0 21.0 0.00 0.00 0.00 83 1027.7
20180115211148 5 258 10.0 21.0 0.00 0.00 0.00 83 1027.7
20180115211034 5 296 9.0 21.0 0.00 0.00 0.00 83 1027.7
20180115210950 5 299 11.0 21.0 0.00 0.00 0.00 83 1027.7
20180115210846 5 285 13.0 23.0 0.00 0.00 0.00 83 1027.7
20180115210742 5 291 13.0 23.0 0.00 0.00 0.00 83 1027.6
20180115210637 5 290 12.0 23.0 0.00 0.00 0.00 83 1027.6
20180115210535 5 277 12.0 23.0 0.00 0.00 0.00 83 1027.6
20180115210434 5 299 11.0 23.0 0.00 0.00 0.00 83 1027.5
20180115210346 5 313 10.0 23.0 0.00 0.00 0.00 83 1027.5
20180115210243 5 298 11.0 23.0 0.00 0.00 0.00 83 1027.6
20180115210140 5 296 13.0 23.0 0.00 0.00 0.00 83 1027.5
20180115210045 5 271 14.0 23.0 0.00 0.00 0.00 83 1027.5
20180115205938 5 282 14.0 23.0 0.00 0.00 0.00 83 1027.4
20180115205834 5 277 11.0 24.0 0.00 0.00 0.00 83 1027.5
20180115205750 5 302 10.0 24.0 0.00 0.00 0.00 83 1027.4
20180115205649 5 289 10.0 24.0 0.00 0.00 0.00 83 1027.4
20180115205546 5 284 12.0 24.0 0.00 0.00 0.00 82 1027.4
20180115205439 5 292 13.0 24.0 0.00 0.00 0.00 82 1027.4
20180115205336 5 290 14.0 24.0 0.00 0.00 0.00 82 1027.4
20180115205232 5 292 15.0 24.0 0.00 0.00 0.00 83 1027.3
20180115205147 5 265 16.0 24.0 0.00 0.00 0.00 83 1027.2
20180115205045 5 284 15.0 24.0 0.00 0.00 0.00 83 1027.3
20180115204943 5 311 16.0 24.0 0.00 0.00 0.00 83 1027.2
20180115204841 6 308 16.0 24.0 0.00 0.00 0.00 83 1027.1
20180115204738 6 290 13.0 21.0 0.00 0.00 0.00 83 1027.1
20180115204631 6 305 14.0 21.0 0.00 0.00 0.00 83 1027.1
20180115204542 6 306 14.0 21.0 0.00 0.00 0.00 83 1027.1
20180115204453 6 263 13.0 21.0 0.00 0.00 0.00 83 1027.0
20180115204341 6 294 12.0 21.0 0.00 0.00 0.00 83 1027.0
20180115204247 6 296 11.0 21.0 0.00 0.00 0.00 83 1027.0
20180115204142 6 269 12.0 22.0 0.00 0.00 0.00 83 1027.1
20180115204034 6 298 13.0 22.0 0.00 0.00 0.00 83 1027.1
20180115203931 6 293 14.0 22.0 0.00 0.00 0.00 83 1027.1
20180115203847 6 291 14.0 22.0 0.00 0.00 0.00 83 1027.1
20180115203743 6 278 12.0 24.0 0.00 0.00 0.00 83 1027.0
20180115203656 6 308 11.0 24.0 0.00 0.00 0.00 83 1027.1
20180115203613 6 268 15.0 24.0 0.00 0.00 0.00 83 1027.1
20180115203521 5 292 20.0 24.0 0.00 0.00 0.00 78 1027.1
20180115203300 3 294 24.0 29.0 0.00 0.00 0.00 78 1027.1
20180115203042 3 294 24.0 29.0 0.00 0.00 0.00 78 1027.0
20180115202946 3 294 24.0 29.0 0.00 0.00 0.00 78 1027.0
20180115202844 3 294 24.0 29.0 0.00 0.00 0.00 78 1027.0
20180115202742 3 294 24.0 29.0 0.00 0.00 0.00 78 1027.0
20180115202640 3 272 24.0 29.0 0.00 0.00 0.00 78 1026.8
20180115202528 3 288 25.0 29.0 0.00 0.00 0.00 78 1026.8
20180115202447 3 273 25.0 29.0 0.00 0.00 0.00 78 1026.8
20180115202330 3 272 23.0 29.0 0.00 0.00 0.00 79 1026.8
20180115202229 3 277 21.0 27.0 0.00 0.00 0.00 80 1026.9
20180115202128 3 277 22.0 27.0 0.00 0.00 0.00 80 1026.9
20180115202039 3 279 22.0 27.0 0.00 0.00 0.00 80 1026.8
20180115201831 3 265 21.0 27.0 0.00 0.00 0.00 80 1026.8
20180115201731 3 277 21.0 27.0 0.00 0.00 0.00 80 1026.8
20180115201633 3 277 22.0 29.0 0.00 0.00 0.00 79 1026.7
20180115201546 3 271 23.0 29.0 0.00 0.00 0.00 79 1026.7
20180115201441 3 274 23.0 29.0 0.00 0.00 0.00 79 1026.7
20180115201340 3 278 22.0 29.0 0.00 0.00 0.00 79 1026.7
20180115201240 3 265 21.0 29.0 0.00 0.00 0.00 80 1026.7
20180115201139 3 296 22.0 29.0 0.00 0.00 0.00 79 1026.7
20180115201032 3 284 23.0 29.0 0.00 0.00 0.00 79 1026.7
20180115200935 3 317 23.0 29.0 0.00 0.00 0.00 80 1026.6
20180115200832 3 279 23.0 29.0 0.00 0.00 0.00 81 1026.6
20180115200728 3 281 23.0 27.0 0.00 0.00 0.00 81 1026.6
20180115200647 3 276 23.0 27.0 0.00 0.00 0.00 81 1026.6
20180115200538 3 277 22.0 27.0 0.00 0.00 0.00 81 1026.5
20180115200435 3 273 21.0 29.0 0.00 0.00 0.00 80 1026.5
20180115200332 3 269 20.0 29.0 0.00 0.00 0.00 80 1026.4
20180115200233 3 277 19.0 29.0 0.00 0.00 0.00 80 1026.5
20180115200153 3 282 17.0 29.0 0.00 0.00 0.00 79 1026.4
20180115200036 3 281 16.0 29.0 0.00 0.00 0.00 79 1026.5
20180115195948 6 269 15.0 23.0 0.00 0.00 0.00 82 1026.5
20180115195845 6 269 16.0 23.0 0.00 0.00 0.00 82 1026.4
20180115195740 6 285 15.0 22.0 0.00 0.00 0.00 82 1026.4
20180115195634 6 289 11.0 22.0 0.00 0.00 0.00 82 1026.3
20180115195542 6 310 9.0 22.0 0.00 0.00 0.00 82 1026.3
20180115195440 6 275 11.0 22.0 0.00 0.00 0.00 82 1026.3
20180115195333 6 273 13.0 23.0 0.00 0.00 0.00 82 1026.3
20180115195250 6 268 13.0 23.0 0.00 0.00 0.00 82 1026.3
20180115195145 6 264 12.0 23.0 0.00 0.00 0.00 83 1026.2
20180115194938 6 269 11.0 23.0 0.00 0.00 0.00 83 1026.2
20180115194833 6 294 10.0 23.0 0.00 0.00 0.00 83 1026.1
20180115194750 6 293 13.0 23.0 0.00 0.00 0.00 83 1026.2
20180115194647 6 298 16.0 23.0 0.00 0.00 0.00 83 1026.2
20180115194537 6 302 13.0 23.0 0.00 0.00 0.00 83 1026.1
20180115194444 6 323 10.0 23.0 0.00 0.00 0.00 83 1026.1
20180115194340 6 286 10.0 23.0 0.00 0.00 0.00 83 1026.1
20180115194236 6 288 10.0 23.0 0.00 0.00 0.00 83 1026.1
20180115194150 6 290 10.0 23.0 0.00 0.00 0.00 83 1026.1
20180115194037 6 298 13.0 23.0 0.00 0.00 0.00 83 1026.1
20180115193935 6 289 13.0 23.0 0.00 0.00 0.00 83 1025.9
20180115193835 6 294 11.0 25.0 0.00 0.00 0.00 83 1026.0
20180115193749 6 310 10.0 25.0 0.00 0.00 0.00 83 1025.9
20180115193646 6 284 13.0 25.0 0.00 0.00 0.00 83 1025.9
20180115193538 6 269 13.0 25.0 0.00 0.00 0.00 83 1026.0
20180115193431 6 276 12.0 25.0 0.00 0.00 0.00 83 1025.9
20180115193346 6 274 12.0 25.0 0.00 0.00 0.00 83 1026.0
20180115193233 6 284 14.0 25.0 0.00 0.00 0.00 83 1026.0
20180115193135 6 302 15.0 25.0 0.00 0.00 0.00 83 1025.9
20180115193043 6 290 15.0 25.0 0.00 0.00 0.00 83 1026.0
20180115192940 6 290 14.0 25.0 0.00 0.00 0.00 84 1026.0
20180115192846 6 285 14.0 25.0 0.00 0.00 0.00 84 1025.9
20180115192742 6 292 13.0 25.0 0.00 0.00 0.00 84 1025.9
20180115192635 6 292 13.0 25.0 0.00 0.00 0.00 84 1025.8
20180115192548 6 303 13.0 25.0 0.00 0.00 0.00 84 1025.9
20180115192445 6 297 12.0 22.0 0.00 0.00 0.00 84 1025.9
20180115192345 6 292 12.0 22.0 0.00 0.00 0.00 84 1025.9
20180115192239 6 282 12.0 22.0 0.00 0.00 0.00 84 1025.8
20180115192135 6 304 12.0 22.0 0.00 0.00 0.00 84 1025.7
20180115192044 6 267 9.0 22.0 0.00 0.00 0.00 84 1025.7
20180115191939 6 292 9.0 22.0 0.00 0.00 0.00 84 1025.9
20180115191835 6 329 12.0 22.0 0.00 0.00 0.00 84 1025.9
20180115191750 6 298 12.0 26.0 0.00 0.00 0.00 84 1025.9
20180115191631 6 281 12.0 26.0 0.00 0.00 0.00 84 1025.9
20180115191537 6 297 13.0 26.0 0.00 0.00 0.00 84 1025.8
20180115191431 6 293 13.0 26.0 0.00 0.00 0.00 84 1025.9
20180115191346 6 279 13.0 26.0 0.00 0.00 0.00 84 1025.9
20180115191241 6 294 13.0 26.0 0.00 0.00 0.00 85 1025.8
20180115191137 6 278 12.0 26.0 0.00 0.00 0.00 85 1025.9
20180115191052 6 285 11.0 26.0 0.00 0.00 0.00 85 1025.9
20180115190959 6 291 10.0 26.0 0.00 0.00 0.00 85 1026.0
20180115190842 6 272 10.0 24.0 0.00 0.00 0.00 84 1026.0
20180115190741 6 312 12.0 24.0 0.00 0.00 0.00 84 1026.0
20180115190531 6 288 13.0 24.0 0.00 0.00 0.00 84 1025.9
20180115190430 6 309 14.0 24.0 0.00 0.00 0.00 84 1025.9
20180115190344 6 292 15.0 24.0 0.00 0.00 0.00 84 1026.0
20180115190241 6 288 14.0 21.0 0.00 0.00 0.00 85 1026.0
20180115190135 6 286 14.0 22.0 0.00 0.00 0.00 85 1026.0
20180115190048 6 269 11.0 22.0 0.00 0.00 0.00 85 1026.0
20180115185945 6 292 9.0 22.0 0.00 0.00 0.00 85 1026.0
20180115185839 6 296 10.0 24.0 0.00 0.00 0.00 85 1026.0
20180115185735 6 288 10.0 24.0 0.00 0.00 0.00 84 1026.1
20180115185650 6 290 11.0 24.0 0.00 0.00 0.00 84 1026.0
20180115185539 6 329 11.0 24.0 0.00 0.00 0.00 84 1026.1
20180115185435 6 292 15.0 24.0 0.00 0.00 0.00 85 1026.1
20180115185333 6 286 15.0 24.0 0.00 0.00 0.00 84 1026.0
20180115185249 6 292 15.0 24.0 0.00 0.00 0.00 85 1026.0
20180115185143 6 302 14.0 24.0 0.00 0.00 0.00 85 1026.0
20180115184945 6 271 13.0 23.0 0.00 0.00 0.00 85 1025.9
20180115184841 6 285 15.0 23.0 0.00 0.00 0.00 85 1025.9
20180115184737 6 256 12.0 23.0 0.00 0.00 0.00 85 1025.9
20180115184630 6 287 11.0 25.0 0.00 0.00 0.00 85 1026.0
20180115184538 6 305 13.0 25.0 0.00 0.00 0.00 85 1026.0
20180115184432 6 264 18.0 25.0 0.00 0.00 0.00 85 1025.9
20180115184347 6 292 21.0 25.0 0.00 0.00 0.00 85 1025.9
20180115184243 3 286 24.0 29.0 0.00 0.00 0.00 82 1026.0
20180115184142 3 286 24.0 29.0 0.00 0.00 0.00 82 1026.0
20180115184035 3 286 24.0 29.0 0.00 0.00 0.00 82 1026.0
20180115183933 3 271 23.0 29.0 0.00 0.00 0.00 82 1025.9
20180115183834 3 291 23.0 29.0 0.00 0.00 0.00 82 1025.9
20180115183731 3 281 23.0 30.0 0.00 0.00 0.00 82 1025.9
20180115183631 3 279 23.0 30.0 0.00 0.00 0.00 82 1025.9
20180115183545 3 270 23.0 30.0 0.00 0.00 0.00 82 1025.9
20180115183342 3 293 25.0 30.0 0.00 0.00 0.00 82 1026.0
20180115183242 3 271 24.0 30.0 0.00 0.00 0.00 82 1026.0
20180115183145 3 285 23.0 30.0 0.00 0.00 0.00 82 1026.0
20180115183040 3 286 24.0 31.0 0.00 0.00 0.00 82 1026.0
20180115182939 3 273 25.0 31.0 0.00 0.00 0.00 82 1026.0
20180115182840 3 311 25.0 31.0 0.00 0.00 0.00 82 1026.0
20180115182738 4 294 24.0 31.0 0.00 0.00 0.00 83 1026.0
20180115182636 4 282 22.0 31.0 0.00 0.00 0.00 83 1026.0
20180115182527 4 281 22.0 31.0 0.00 0.00 0.00 83 1025.9
20180115182431 3 278 23.0 31.0 0.00 0.00 0.00 82 1025.9
20180115182347 3 279 25.0 31.0 0.00 0.00 0.00 82 1025.9
20180115182243 3 272 25.0 31.0 0.00 0.00 0.00 82 1025.9
20180115182139 4 281 25.0 30.0 0.00 0.00 0.00 83 1025.9
20180115182033 3 276 24.0 30.0 0.00 0.00 0.00 83 1025.9
20180115181931 4 287 25.0 31.0 0.00 0.00 0.00 83 1025.9
20180115181830 3 286 26.0 31.0 0.00 0.00 0.00 82 1025.9
20180115181731 4 274 26.0 31.0 0.00 0.00 0.00 82 1025.9
20180115181630 4 273 25.0 31.0 0.00 0.00 0.00 83 1025.9
20180115181544 4 271 24.0 31.0 0.00 0.00 0.00 83 1025.9
20180115181344 4 280 24.0 31.0 0.00 0.00 0.00 82 1026.0
20180115181241 3 277 26.0 31.0 0.00 0.00 0.00 82 1025.9
20180115181138 4 271 25.0 31.0 0.00 0.00 0.00 82 1025.8
20180115181036 3 278 25.0 31.0 0.00 0.00 0.00 82 1025.9
20180115180932 4 279 24.0 30.0 0.00 0.00 0.00 82 1025.9
20180115180831 4 277 23.0 29.0 0.00 0.00 0.00 83 1026.0
20180115180730 4 281 23.0 30.0 0.00 0.00 0.00 83 1026.0
20180115180648 4 281 22.0 30.0 0.00 0.00 0.00 83 1026.0
20180115180341 3 292 23.0 33.0 0.00 0.00 0.00 83 1026.0
20180115180259 3 277 22.0 33.0 0.00 0.00 0.00 83 1026.0
20180115180204 3 276 22.0 33.0 0.00 0.00 0.00 82 1026.0
20180115180037 3 280 25.0 33.0 0.00 0.00 0.00 82 1026.0
20180115175928 3 275 25.0 33.0 0.00 0.00 0.00 82 1026.0
20180115175847 3 277 24.0 33.0 0.00 0.00 0.00 82 1026.0
20180115175746 3 273 24.0 33.0 0.00 0.00 0.00 82 1026.0
20180115175631 3 289 26.0 31.0 0.00 0.00 0.00 81 1026.0
20180115175544 3 286 26.0 31.0 0.00 0.00 0.00 82 1026.0
20180115175442 3 275 26.0 31.0 0.00 0.00 0.00 82 1026.0
20180115175337 3 280 24.0 29.0 0.00 0.00 0.00 82 1026.0
20180115175235 3 271 23.0 29.0 0.00 0.00 0.00 82 1026.0
20180115175135 3 280 23.0 29.0 0.00 0.00 0.00 82 1026.0
20180115175047 3 279 24.0 29.0 0.00 0.00 0.00 82 1026.0
20180115174930 3 279 23.0 29.0 0.00 0.00 0.00 82 1026.0
20180115174828 3 273 22.0 29.0 0.00 0.00 0.00 83 1026.0
20180115174747 3 271 22.0 29.0 0.00 0.00 0.00 83 1026.1
20180115174628 3 270 22.0 27.0 0.00 0.00 0.00 83 1026.1
20180115174541 3 269 21.0 27.0 0.00 0.00 0.00 82 1026.1
20180115174439 3 281 22.0 27.0 0.00 0.00 0.00 83 1026.1
20180115174135 3 288 23.0 27.0 0.00 0.00 0.00 83 1026.1
20180115174028 3 281 23.0 27.0 0.00 0.00 0.00 83 1026.2
20180115173946 3 275 22.0 26.0 0.00 0.00 0.00 83 1026.2
20180115173843 3 271 21.0 26.0 0.00 0.00 0.00 83 1026.1
20180115173739 3 273 20.0 28.0 0.00 0.00 0.00 83 1026.2
20180115173638 3 284 19.0 28.0 0.00 0.00 0.00 84 1026.2
20180115173536 3 291 19.0 28.0 0.00 0.00 0.00 84 1026.1
20180115173439 3 279 20.0 28.0 0.00 0.00 0.00 84 1026.1
20180115173338 3 274 20.0 28.0 0.00 0.00 0.00 84 1026.1
20180115173233 3 277 21.0 28.0 0.00 0.00 0.00 84 1026.0
20180115173133 3 277 22.0 28.0 0.00 0.00 0.00 83 1026.0
20180115173045 3 284 24.0 28.0 0.00 0.00 0.00 83 1026.0
20180115172941 3 276 22.0 28.0 0.00 0.00 0.00 84 1026.0
20180115172840 3 279 22.0 28.0 0.00 0.00 0.00 84 1026.0
20180115172742 3 269 22.0 30.0 0.00 0.00 0.00 84 1026.0
20180115172642 3 275 21.0 30.0 0.00 0.00 0.00 84 1026.0
20180115172537 3 277 21.0 30.0 0.00 0.00 0.00 83 1026.0
20180115172431 3 273 24.0 30.0 0.00 0.00 0.00 83 1026.0
20180115172327 3 283 25.0 30.0 0.00 0.00 0.00 83 1026.0
20180115172247 3 292 25.0 30.0 0.00 0.00 0.00 83 1025.9
20180115172130 3 275 25.0 30.0 0.00 0.00 0.00 84 1025.9
20180115172042 3 280 24.0 30.0 0.00 0.00 0.00 84 1025.9
20180115171943 3 276 24.0 30.0 0.00 0.00 0.00 84 1025.9
20180115171839 3 277 23.0 30.0 0.00 0.00 0.00 84 1025.9
20180115171736 3 282 22.0 30.0 0.00 0.00 0.00 85 1025.9
20180115171635 3 263 22.0 30.0 0.00 0.00 0.00 85 1025.9
20180115171545 3 274 24.0 30.0 0.00 0.00 0.00 84 1025.9
20180115171427 3 273 27.0 30.0 0.00 0.00 0.00 84 1025.9
20180115171347 3 280 26.0 30.0 0.00 0.00 0.00 84 1025.9
20180115171242 3 272 26.0 30.0 0.00 0.00 0.00 84 1026.0
20180115171142 3 273 25.0 29.0 0.00 0.00 0.00 84 1026.0
20180115171037 3 275 24.0 29.0 0.00 0.00 0.00 84 1025.9
20180115170931 3 274 22.0 29.0 0.00 0.00 0.00 84 1025.9
20180115170846 3 277 22.0 29.0 0.00 0.00 0.00 84 1025.9
20180115170742 3 276 22.0 29.0 0.00 0.00 0.00 84 1026.0
20180115170642 3 304 22.0 29.0 0.00 0.00 0.00 84 1025.9
20180115170538 3 274 23.0 29.0 0.00 0.00 0.00 84 1026.0
20180115170437 3 279 23.0 29.0 0.00 0.00 0.00 83 1026.0
20180115170337 3 284 24.0 29.0 0.00 0.00 0.00 84 1026.0
20180115170234 3 277 24.0 29.0 0.00 0.00 0.00 84 1026.0
20180115170132 3 281 25.0 29.0 0.00 0.00 0.00 84 1026.0
20180115165943 3 284 24.0 28.0 0.00 0.00 0.00 84 1025.9
20180115165843 3 311 22.0 28.0 0.00 0.00 0.00 84 1025.9
20180115165743 3 280 21.0 28.0 0.00 0.00 0.00 84 1025.8
20180115165643 3 277 22.0 28.0 0.00 0.00 0.00 83 1025.9
20180115165536 3 287 23.0 28.0 0.00 0.00 0.00 84 1026.0
20180115165434 3 281 22.0 28.0 0.00 0.00 0.00 84 1025.9
20180115165335 3 288 20.0 28.0 0.00 0.00 0.00 84 1025.9
20180115165133 3 267 20.0 28.0 0.00 0.00 0.00 84 1026.0
20180115165043 3 278 20.0 28.0 0.00 0.00 0.00 84 1026.0
20180115164942 3 280 19.0 28.0 0.00 0.00 0.00 83 1026.0
20180115164841 3 278 19.0 28.0 0.00 0.00 0.00 83 1026.0
20180115164740 3 281 20.0 28.0 0.00 0.00 0.00 83 1026.0
20180115164641 3 273 22.0 28.0 0.00 0.00 0.00 83 1025.9
20180115164535 3 278 24.0 28.0 0.00 0.00 0.00 83 1025.9
20180115164434 3 271 22.0 26.0 0.00 0.00 0.00 83 1026.0
20180115164352 3 281 21.0 27.0 0.00 0.00 0.00 83 1026.0
20180115164308 3 281 21.0 27.0 0.00 0.00 0.00 83 1025.9
20180115164203 3 281 21.0 27.0 0.00 0.00 0.00 83 1025.9
20180115164120 3 281 21.0 27.0 0.00 0.00 0.00 83 1025.9
20180115163842 3 281 21.0 27.0 0.00 0.00 0.00 83 1026.0
20180115163746 3 281 21.0 27.0 0.00 0.00 0.00 83 1026.0
20180115163645 3 271 23.0 27.0 0.00 0.00 0.00 83 1025.9
20180115163438 3 275 20.0 27.0 0.00 0.00 0.00 84 1025.9
20180115163334 3 275 19.0 25.0 0.00 0.00 0.00 84 1025.9
20180115163244 3 273 19.0 25.0 0.00 0.00 0.00 84 1025.9
20180115163143 3 279 19.0 25.0 0.00 0.00 0.00 83 1025.8
20180115163040 3 274 20.0 25.0 0.00 0.00 0.00 83 1025.8
20180115162837 3 270 20.0 25.0 0.00 0.00 0.00 84 1025.8
20180115162736 3 269 20.0 25.0 0.00 0.00 0.00 84 1025.8
20180115162636 3 271 20.0 25.0 0.00 0.00 0.00 84 1025.8
20180115162542 3 275 20.0 26.0 0.00 0.00 0.00 84 1025.8
20180115162438 3 273 21.0 26.0 0.00 0.00 0.00 84 1025.8
20180115162354 3 271 21.0 26.0 0.00 0.00 0.00 84 1025.7
20180115162314 3 281 20.0 26.0 0.00 0.00 0.00 84 1025.7
20180115161734 3 275 20.0 26.0 0.00 0.00 0.00 84 1025.7
20180115161635 3 274 19.0 24.0 0.00 0.00 0.00 84 1025.6
20180115161529 3 270 19.0 24.0 0.00 0.00 0.00 84 1025.7
20180115161444 3 265 19.0 24.0 0.00 0.00 0.00 84 1025.7
20180115161344 3 267 17.0 24.0 0.00 0.00 0.00 84 1025.7
20180115161244 3 269 17.0 24.0 0.00 0.00 0.00 84 1025.8
20180115161128 3 273 17.0 25.0 0.00 0.00 0.00 83 1025.8
20180115161040 3 270 18.0 25.0 0.00 0.00 0.00 83 1025.8
20180115160941 3 273 19.0 25.0 0.00 0.00 0.00 83 1025.8
20180115160842 3 278 18.0 25.0 0.00 0.00 0.00 84 1025.8
20180115160740 3 269 16.0 25.0 0.00 0.00 0.00 84 1025.8
20180115160636 3 276 17.0 25.0 0.00 0.00 0.00 84 1025.8
20180115160544 3 272 18.0 25.0 0.00 0.00 0.00 84 1025.8
20180115160438 2 281 20.0 25.0 0.00 0.00 0.00 84 1025.8
20180115160335 3 274 20.0 25.0 0.00 0.00 0.00 84 1025.7
20180115160236 3 281 19.0 25.0 0.00 0.00 0.00 84 1025.7
20180115160155 3 276 18.0 27.0 0.00 0.00 0.00 84 1025.6
20180115160036 3 257 19.0 27.0 0.00 0.00 0.00 84 1025.6
20180115155929 3 269 20.0 27.0 0.00 0.00 0.00 84 1025.5
20180115155830 3 269 18.0 27.0 0.00 0.00 0.00 84 1025.5
20180115155747 3 269 16.0 27.0 0.00 0.00 0.00 84 1025.5
20180115155631 3 263 17.0 27.0 0.00 0.00 0.00 84 1025.5
20180115155545 3 275 19.0 27.0 0.00 0.00 0.00 84 1025.4
20180115155443 3 279 20.0 27.0 0.00 0.00 0.00 84 1025.4
20180115155340 3 276 19.0 27.0 0.00 0.00 0.00 84 1025.4
20180115155239 3 273 19.0 28.0 0.00 0.00 0.00 84 1025.4
20180115155050 2 273 22.0 28.0 0.00 0.00 0.00 84 1025.4
20180115154931 2 299 22.0 28.0 0.00 0.00 0.00 84 1025.3
20180115154846 2 273 22.0 28.0 0.00 0.00 0.00 84 1025.3
20180115154741 3 273 21.0 28.0 0.00 0.00 0.00 84 1025.2
20180115154531 3 271 22.0 28.0 0.00 0.00 0.00 84 1025.1
20180115154430 3 273 21.0 28.0 0.00 0.00 0.00 84 1025.1
20180115154328 3 271 18.0 25.0 0.00 0.00 0.00 84 1025.2
20180115154231 3 271 18.0 25.0 0.00 0.00 0.00 84 1025.2
20180115154128 3 281 17.0 29.0 0.00 0.00 0.00 84 1025.2
20180115153943 3 277 17.0 29.0 0.00 0.00 0.00 84 1025.2
20180115153837 3 275 19.0 29.0 0.00 0.00 0.00 84 1025.2
20180115153732 2 275 21.0 29.0 0.00 0.00 0.00 84 1025.2
20180115153628 2 276 21.0 29.0 0.00 0.00 0.00 84 1025.2
20180115153543 2 277 22.0 29.0 0.00 0.00 0.00 84 1025.2
20180115153436 2 274 23.0 29.0 0.00 0.00 0.00 84 1025.2
20180115153335 2 273 23.0 29.0 0.00 0.00 0.00 84 1025.1
20180115153234 2 273 23.0 28.0 0.00 0.00 0.00 84 1025.1
20180115153131 2 279 22.0 28.0 0.00 0.00 0.00 84 1025.1
20180115153045 3 273 20.0 28.0 0.00 0.00 0.00 84 1025.0
20180115152945 3 280 19.0 28.0 0.00 0.00 0.00 85 1025.0
20180115152827 3 278 20.0 28.0 0.00 0.00 0.00 84 1025.0
20180115152747 3 276 21.0 28.0 0.00 0.00 0.00 85 1024.9
20180115152645 3 279 20.0 28.0 0.00 0.00 0.00 85 1025.0
20180115152529 3 272 21.0 29.0 0.00 0.00 0.00 85 1024.9
20180115152445 2 281 20.0 29.0 0.00 0.00 0.00 85 1024.9
20180115152344 2 269 20.0 29.0 0.00 0.00 0.00 85 1024.8
20180115152237 2 277 18.0 29.0 0.00 0.00 0.00 85 1024.8
20180115152032 2 273 19.0 29.0 0.00 0.00 0.00 85 1024.9
20180115151929 2 278 22.0 29.0 0.00 0.00 0.00 85 1024.9
20180115151729 2 283 24.0 28.0 0.00 0.00 0.00 85 1024.8
20180115151647 2 294 23.0 28.0 0.00 0.00 0.00 85 1024.8
20180115151536 2 268 21.0 27.0 0.00 0.00 0.00 85 1024.8
20180115151436 3 281 20.0 25.0 0.00 0.00 0.00 85 1024.8
20180115151337 3 274 19.0 25.0 0.00 0.00 0.00 85 1024.8
20180115151236 3 281 17.0 24.0 0.00 0.00 0.00 85 1024.8
20180115151132 3 267 17.0 24.0 0.00 0.00 0.00 85 1024.9
20180115151044 3 273 18.0 26.0 0.00 0.00 0.00 85 1024.9
20180115150939 3 265 19.0 26.0 0.00 0.00 0.00 85 1024.9
20180115150837 3 269 19.0 26.0 0.00 0.00 0.00 85 1024.7
20180115150741 3 271 19.0 26.0 0.00 0.00 0.00 85 1024.8
20180115150639 3 285 20.0 26.0 0.00 0.00 0.00 85 1024.8
20180115150530 3 275 20.0 26.0 0.00 0.00 0.00 85 1024.8
20180115150431 3 273 20.0 26.0 0.00 0.00 0.00 85 1024.7
20180115150329 3 273 18.0 26.0 0.00 0.00 0.00 85 1024.8
20180115150244 3 280 18.0 26.0 0.00 0.00 0.00 85 1024.7
20180115150144 3 277 18.0 24.0 0.00 0.00 0.00 85 1024.6
20180115150043 3 279 20.0 24.0 0.00 0.00 0.00 85 1024.6
20180115145941 3 281 19.0 24.0 0.00 0.00 0.00 85 1024.6
20180115145836 3 276 18.0 23.0 0.00 0.00 0.00 85 1024.6
20180115145729 3 272 19.0 23.0 0.00 0.00 0.00 85 1024.6
20180115145628 3 266 19.0 23.0 0.00 0.00 0.00 85 1024.6
20180115145542 3 265 18.0 24.0 0.00 0.00 0.00 85 1024.6
20180115145441 3 268 18.0 24.0 0.00 0.00 0.00 85 1024.6
20180115145241 3 265 17.0 25.0 0.00 0.00 0.00 85 1024.5
20180115145137 3 279 18.0 25.0 0.00 0.00 0.00 84 1024.4
20180115145044 3 268 20.0 25.0 0.00 0.00 0.00 84 1024.5
20180115144944 3 290 19.0 25.0 0.00 0.00 0.00 84 1024.4
20180115144844 3 275 18.0 25.0 0.00 0.00 0.00 84 1024.4
20180115144738 3 269 17.0 25.0 0.00 0.00 0.00 84 1024.5
20180115144638 3 275 20.0 25.0 0.00 0.00 0.00 84 1024.4
20180115144534 3 284 19.0 25.0 0.00 0.00 0.00 84 1024.4
20180115144433 3 284 18.0 25.0 0.00 0.00 0.00 84 1024.3
20180115144331 3 278 18.0 26.0 0.00 0.00 0.00 84 1024.3
20180115144229 3 282 18.0 28.0 0.00 0.00 0.00 84 1024.2
20180115144131 3 290 17.0 28.0 0.00 0.00 0.00 84 1024.1
20180115144043 3 267 17.0 28.0 0.00 0.00 0.00 84 1024.2
20180115143943 3 277 19.0 28.0 0.00 0.00 0.00 84 1024.0
20180115143844 3 282 20.0 28.0 0.00 0.00 0.00 84 1024.0
20180115143743 3 277 21.0 28.0 0.00 0.00 0.00 84 1024.0
20180115143642 3 269 23.0 28.0 0.00 0.00 0.00 84 1023.9
20180115143537 3 296 23.0 28.0 0.00 0.00 0.00 84 1023.9
20180115143450 4 273 22.0 28.0 0.00 0.00 0.00 84 1023.9
20180115143343 4 273 21.0 27.0 0.00 0.00 0.00 84 1023.9
20180115143242 4 278 20.0 27.0 0.00 0.00 0.00 84 1023.8
20180115143142 4 278 20.0 26.0 0.00 0.00 0.00 84 1023.8
20180115143050 4 271 20.0 26.0 0.00 0.00 0.00 84 1023.8
20180115142943 4 278 20.0 26.0 0.00 0.00 0.00 84 1023.7
20180115142839 4 282 19.0 26.0 0.00 0.00 0.00 84 1023.8
20180115142746 4 285 19.0 30.0 0.00 0.00 0.00 84 1023.8
20180115142642 4 278 18.0 30.0 0.00 0.00 0.00 84 1023.8
20180115142532 4 278 19.0 30.0 0.00 0.00 0.00 84 1023.8
20180115142433 4 291 19.0 30.0 0.00 0.00 0.00 84 1023.8
20180115142345 4 281 20.0 30.0 0.00 0.00 0.00 84 1023.8
20180115142239 4 280 20.0 30.0 0.00 0.00 0.00 84 1023.7
20180115142134 4 283 20.0 30.0 0.00 0.00 0.00 85 1023.7
20180115142046 4 286 22.0 30.0 0.00 0.00 0.00 85 1023.7
20180115141937 4 276 21.0 30.0 0.00 0.00 0.00 85 1023.7
20180115141834 4 279 19.0 29.0 0.00 0.00 0.00 85 1023.6
20180115141731 4 284 18.0 29.0 0.00 0.00 0.00 84 1023.7
20180115141642 4 267 19.0 29.0 0.00 0.00 0.00 84 1023.7
20180115141549 4 266 19.0 29.0 0.00 0.00 0.00 84 1023.5
20180115141443 4 292 21.0 29.0 0.00 0.00 0.00 83 1023.6
20180115141338 4 280 22.0 29.0 0.00 0.00 0.00 83 1023.5
20180115141231 4 285 24.0 29.0 0.00 0.00 0.00 83 1023.5
20180115141147 4 295 23.0 29.0 0.00 0.00 0.00 83 1023.5
20180115141040 4 303 23.0 26.0 0.00 0.00 0.00 83 1023.5
20180115140934 4 280 22.0 29.0 0.00 0.00 0.00 83 1023.5
20180115140836 4 279 21.0 29.0 0.00 0.00 0.00 83 1023.5
20180115140733 4 273 19.0 29.0 0.00 0.00 0.00 83 1023.4
20180115140649 4 275 19.0 29.0 0.00 0.00 0.00 83 1023.4
20180115140534 4 277 20.0 29.0 0.00 0.00 0.00 83 1023.4
20180115140444 4 278 21.0 29.0 0.00 0.00 0.00 83 1023.4
20180115140339 4 284 21.0 29.0 0.00 0.00 0.00 83 1023.4
20180115140255 4 281 20.0 29.0 0.00 0.00 0.00 83 1023.4
20180115140211 4 283 18.0 29.0 0.00 0.00 0.00 83 1023.4
20180115140042 5 285 17.0 28.0 0.00 0.00 0.00 84 1023.3
20180115135931 5 285 17.0 28.0 0.00 0.00 0.00 84 1023.3
20180115135846 5 285 19.0 28.0 0.00 0.00 0.00 84 1023.3
20180115135744 5 279 21.0 28.0 0.00 0.00 0.00 83 1023.2
20180115135639 5 271 22.0 28.0 0.00 0.00 0.00 83 1023.2
20180115135544 5 289 21.0 28.0 0.00 0.00 0.00 83 1023.2
20180115135438 5 277 21.0 28.0 0.00 0.00 0.00 83 1023.2
20180115135333 5 278 20.0 28.0 0.00 0.00 0.00 83 1023.2
20180115135145 5 275 18.0 25.0 0.00 0.00 0.00 83 1023.2
20180115135031 5 282 20.0 25.0 0.00 0.00 0.00 82 1023.2
20180115134948 5 278 20.0 25.0 0.00 0.00 0.00 82 1023.2
20180115134844 5 283 20.0 25.0 0.00 0.00 0.00 82 1023.2
20180115134741 5 286 20.0 25.0 0.00 0.00 0.00 82 1023.1
20180115134637 5 281 21.0 29.0 0.00 0.00 0.00 82 1023.1
20180115134532 5 283 21.0 29.0 0.00 0.00 0.00 82 1023.0
20180115134447 5 288 20.0 29.0 0.00 0.00 0.00 82 1023.1
20180115134342 5 279 19.0 29.0 0.00 0.00 0.00 83 1023.0
20180115134237 5 273 20.0 29.0 0.00 0.00 0.00 83 1023.0
20180115134133 5 286 21.0 29.0 0.00 0.00 0.00 83 1023.0
20180115134043 5 278 22.0 29.0 0.00 0.00 0.00 83 1023.0
20180115133940 5 273 24.0 29.0 0.00 0.00 0.00 83 1023.0
20180115133836 5 274 23.0 29.0 0.00 0.00 0.00 83 1023.0
20180115133732 5 278 21.0 28.0 0.00 0.00 0.00 83 1022.9
20180115133650 5 278 21.0 27.0 0.00 0.00 0.00 83 1022.9
20180115133539 5 273 23.0 27.0 0.00 0.00 0.00 83 1022.9
20180115133436 5 279 22.0 26.0 0.00 0.00 0.00 83 1022.9
20180115133332 5 269 21.0 25.0 0.00 0.00 0.00 84 1022.9
20180115133248 5 283 19.0 23.0 0.00 0.00 0.00 84 1022.9
20180115133035 5 278 12.0 19.0 0.00 0.00 0.00 84 1022.9
20180115132930 7 279 11.0 19.0 0.00 0.00 0.00 85 1022.9
20180115132844 7 279 11.0 19.0 0.00 0.00 0.00 85 1022.9
20180115132737 7 279 11.0 19.0 0.00 0.00 0.00 85 1022.9
20180115132644 7 294 12.0 19.0 0.00 0.00 0.00 85 1022.8
20180115132547 8 315 11.0 18.0 0.00 0.00 0.00 85 1022.8
20180115132443 8 281 8.0 21.0 0.00 0.00 0.00 85 1022.9
20180115132338 7 271 8.0 21.0 0.00 0.00 0.00 85 1022.9
20180115132235 7 302 8.0 21.0 0.00 0.00 0.00 85 1022.8
20180115132150 7 293 9.0 22.0 0.00 0.00 0.00 85 1022.8
20180115132038 7 281 9.0 22.0 0.00 0.00 0.00 85 1022.8
20180115131935 7 309 11.0 22.0 0.00 0.00 0.00 85 1022.8
20180115131830 7 294 12.0 22.0 0.00 0.00 0.00 85 1022.7
20180115131747 7 296 13.0 22.0 0.00 0.00 0.00 85 1022.7
20180115131642 7 267 11.0 22.0 0.00 0.00 0.00 85 1022.8
20180115131530 8 303 10.0 22.0 0.00 0.00 0.00 85 1022.8
20180115131431 8 276 12.0 22.0 0.00 0.00 0.00 85 1022.8
20180115131346 8 284 12.0 22.0 0.00 0.00 0.00 85 1022.9
20180115131238 8 295 11.0 19.0 0.00 0.00 0.00 85 1022.8
20180115131131 8 265 10.0 19.0 0.00 0.00 0.00 85 1022.8
20180115131042 8 284 10.0 18.0 0.00 0.00 0.00 85 1022.7
20180115130934 8 297 12.0 18.0 0.00 0.00 0.00 85 1022.7
20180115130840 8 270 11.0 18.0 0.00 0.00 0.00 85 1022.7
20180115130736 8 307 9.0 18.0 0.00 0.00 0.00 85 1022.7
20180115130636 8 283 11.0 18.0 0.00 0.00 0.00 85 1022.6
20180115130547 8 288 12.0 18.0 0.00 0.00 0.00 85 1022.7
20180115130443 8 275 12.0 18.0 0.00 0.00 0.00 85 1022.6
20180115130341 8 282 12.0 18.0 0.00 0.00 0.00 85 1022.6
20180115130237 8 259 12.0 18.0 0.00 0.00 0.00 85 1022.6
20180115130134 8 282 10.0 17.0 0.00 0.00 0.00 85 1022.6
20180115130047 8 305 9.0 18.0 0.00 0.00 0.00 85 1022.5
20180115125944 8 289 8.0 18.0 0.00 0.00 0.00 84 1022.5
20180115125841 8 281 8.0 21.0 0.00 0.00 0.00 84 1022.5
20180115125736 8 286 10.0 21.0 0.00 0.00 0.00 84 1022.4
20180115125652 8 277 11.0 21.0 0.00 0.00 0.00 84 1022.4
20180115125540 8 261 11.0 21.0 0.00 0.00 0.00 84 1022.4
20180115125437 8 286 12.0 21.0 0.00 0.00 0.00 84 1022.4
20180115125352 8 284 11.0 20.0 0.00 0.00 0.00 84 1022.4
20180115125305 8 259 12.0 20.0 0.00 0.00 0.00 85 1022.3
20180115125135 8 259 12.0 20.0 0.00 0.00 0.00 85 1022.3
20180115125046 8 259 12.0 20.0 0.00 0.00 0.00 85 1022.3
20180115124941 8 259 12.0 20.0 0.00 0.00 0.00 85 1022.3
20180115124838 8 259 12.0 20.0 0.00 0.00 0.00 85 1022.3
20180115124631 8 319 10.0 20.0 0.00 0.00 0.00 85 1022.2
20180115124540 8 304 10.0 20.0 0.00 0.00 0.00 85 1022.2
20180115124337 8 279 11.0 20.0 0.00 0.00 0.00 85 1022.1
20180115124235 8 327 11.0 20.0 0.00 0.00 0.00 85 1022.1
20180115124130 8 284 12.0 20.0 0.00 0.00 0.00 85 1022.1
20180115124043 8 271 13.0 21.0 0.00 0.00 0.00 85 1022.1
20180115123938 8 280 11.0 21.0 0.00 0.00 0.00 85 1022.2
20180115123834 8 315 10.0 21.0 0.00 0.00 0.00 85 1022.2
20180115123732 8 298 11.0 21.0 0.00 0.00 0.00 85 1022.2
20180115123630 8 301 12.0 21.0 0.00 0.00 0.00 85 1022.1
20180115123538 9 274 12.0 21.0 0.00 0.00 0.00 85 1022.1
20180115123434 9 269 13.0 21.0 0.00 0.00 0.00 86 1022.0
20180115123348 9 284 14.0 21.0 0.00 0.00 0.00 86 1022.0
20180115123242 9 271 13.0 21.0 0.00 0.00 0.00 86 1022.1
20180115123138 9 282 9.0 18.0 0.00 0.00 0.00 85 1022.1
20180115123049 9 294 9.0 18.0 0.00 0.00 0.00 85 1022.1
20180115122931 9 294 11.0 18.0 0.00 0.00 0.00 85 1022.1
20180115122848 9 286 11.0 18.0 0.00 0.00 0.00 85 1022.0
20180115122746 9 283 8.0 18.0 0.00 0.00 0.00 85 1022.0
20180115122641 9 299 9.0 22.0 0.00 0.00 0.00 85 1021.9
20180115122548 9 290 10.0 22.0 0.00 0.00 0.00 85 1022.0
20180115122439 9 279 10.0 22.0 0.00 0.00 0.00 85 1021.9
20180115122336 9 277 11.0 22.0 0.00 0.00 0.00 85 1021.9
20180115122249 9 303 12.0 22.0 0.00 0.00 0.00 85 1021.8
20180115122145 9 318 12.0 22.0 0.00 0.00 0.00 85 1021.8
20180115122038 9 306 13.0 22.0 0.00 0.00 0.00 85 1021.8
20180115121934 9 250 14.0 22.0 0.00 0.00 0.00 85 1021.8
20180115121830 9 269 13.0 23.0 0.00 0.00 0.00 85 1021.8
20180115121743 9 292 14.0 23.0 0.00 0.00 0.00 85 1021.8
20180115121639 9 280 13.0 23.0 0.00 0.00 0.00 85 1021.7
20180115121547 9 286 12.0 23.0 0.00 0.00 0.00 85 1021.8
20180115121440 9 292 12.0 23.0 0.00 0.00 0.00 85 1021.8
20180115121235 9 279 14.0 23.0 0.00 0.00 0.00 85 1021.8
20180115121151 9 290 14.0 23.0 0.00 0.00 0.00 85 1021.8
20180115121049 9 291 12.0 23.0 0.00 0.00 0.00 85 1021.7
20180115120944 9 292 12.0 22.0 0.00 0.00 0.00 85 1021.7
20180115120840 9 286 13.0 22.0 0.00 0.00 0.00 85 1021.8
20180115120736 9 301 12.0 24.0 0.00 0.00 0.00 85 1021.6
20180115120632 9 290 10.0 24.0 0.00 0.00 0.00 85 1021.7
20180115120542 9 269 10.0 24.0 0.00 0.00 0.00 85 1021.7
20180115120437 9 305 10.0 24.0 0.00 0.00 0.00 85 1021.7
20180115120350 9 284 10.0 24.0 0.00 0.00 0.00 85 1021.7
20180115120309 9 271 9.0 24.0 0.00 0.00 0.00 85 1021.7
20180115120215 9 315 10.0 24.0 0.00 0.00 0.00 85 1021.6
20180115120047 9 239 13.0 24.0 0.00 0.00 0.00 85 1021.6
20180115115941 9 273 13.0 24.0 0.00 0.00 0.00 85 1021.6
20180115115833 9 296 12.0 20.0 0.00 0.00 0.00 85 1021.6
20180115115732 9 307 13.0 20.0 0.00 0.00 0.00 85 1021.6
20180115115646 9 296 12.0 20.0 0.00 0.00 0.00 85 1021.7
20180115115538 9 280 11.0 20.0 0.00 0.00 0.00 85 1021.6
20180115115447 9 291 11.0 20.0 0.00 0.00 0.00 85 1021.7
20180115115343 9 284 13.0 20.0 0.00 0.00 0.00 85 1021.6
20180115115240 9 306 12.0 20.0 0.00 0.00 0.00 85 1021.6
20180115115136 9 293 11.0 18.0 0.00 0.00 0.00 86 1021.6
20180115115046 9 280 12.0 18.0 0.00 0.00 0.00 86 1021.6
20180115114946 9 287 10.0 18.0 0.00 0.00 0.00 86 1021.5
20180115114843 9 309 11.0 18.0 0.00 0.00 0.00 86 1021.6
20180115114740 9 298 11.0 18.0 0.00 0.00 0.00 86 1021.6
20180115114633 9 284 10.0 17.0 0.00 0.00 0.00 86 1021.5
20180115114540 9 288 10.0 17.0 0.00 0.00 0.00 86 1021.6
20180115114435 9 302 11.0 17.0 0.00 0.00 0.00 86 1021.4
20180115114332 9 297 10.0 17.0 0.00 0.00 0.00 86 1021.5
20180115114230 9 306 11.0 17.0 0.00 0.00 0.00 86 1021.5
20180115114144 9 286 10.0 17.0 0.00 0.00 0.00 86 1021.5
20180115114035 9 297 8.0 16.0 0.00 0.00 0.00 86 1021.5
20180115113947 9 304 9.0 16.0 0.00 0.00 0.00 86 1021.4
20180115113845 9 293 9.0 19.0 0.00 0.00 0.00 86 1021.4
20180115113740 9 266 8.0 19.0 0.00 0.00 0.00 86 1021.4
20180115113643 9 281 7.0 19.0 0.00 0.00 0.00 86 1021.3
20180115113544 9 312 10.0 19.0 0.00 0.00 0.00 86 1021.3
20180115113441 9 281 15.0 19.0 0.00 0.00 0.00 83 1021.3
20180115113340 8 281 18.0 24.0 0.00 0.00 0.00 83 1021.3
20180115113237 8 281 18.0 24.0 0.00 0.00 0.00 83 1021.2
20180115113148 8 281 18.0 24.0 0.00 0.00 0.00 83 1021.1
20180115113036 8 278 18.0 24.0 0.00 0.00 0.00 83 1021.2
20180115112933 8 280 17.0 23.0 0.00 0.00 0.00 83 1021.1
20180115112848 8 281 17.0 23.0 0.00 0.00 0.00 83 1021.2
20180115112749 8 277 19.0 23.0 0.00 0.00 0.00 83 1021.1
20180115112643 8 288 19.0 23.0 0.00 0.00 0.00 83 1021.1
20180115112534 8 279 18.0 25.0 0.00 0.00 0.00 83 1021.1
20180115112430 8 279 18.0 25.0 0.00 0.00 0.00 83 1021.0
20180115112348 8 278 18.0 25.0 0.00 0.00 0.00 83 1021.1
20180115112243 8 280 18.0 25.0 0.00 0.00 0.00 83 1021.0
20180115112137 7 288 19.0 25.0 0.00 0.00 0.00 83 1021.0
20180115112044 7 283 18.0 25.0 0.00 0.00 0.00 84 1021.0
20180115111946 7 280 18.0 25.0 0.00 0.00 0.00 84 1021.0
20180115111841 7 281 19.0 25.0 0.00 0.00 0.00 84 1020.9
20180115111737 7 286 19.0 25.0 0.00 0.00 0.00 84 1020.9
20180115111649 7 292 18.0 23.0 0.00 0.00 0.00 84 1020.9
20180115111541 7 276 19.0 23.0 0.00 0.00 0.00 84 1020.9
20180115111438 7 277 19.0 23.0 0.00 0.00 0.00 84 1020.9
20180115111333 7 275 19.0 23.0 0.00 0.00 0.00 84 1020.9
20180115111240 7 271 19.0 23.0 0.00 0.00 0.00 84 1020.9
20180115111136 7 275 18.0 23.0 0.00 0.00 0.00 84 1020.9
20180115111045 7 277 17.0 23.0 0.00 0.00 0.00 84 1020.9
20180115110943 7 278 16.0 23.0 0.00 0.00 0.00 85 1020.9
20180115110837 7 272 16.0 23.0 0.00 0.00 0.00 84 1020.9
20180115110735 7 275 17.0 23.0 0.00 0.00 0.00 84 1020.8
20180115110650 7 272 17.0 23.0 0.00 0.00 0.00 84 1020.8
20180115110540 7 284 18.0 23.0 0.00 0.00 0.00 84 1020.7
20180115110440 7 271 19.0 23.0 0.00 0.00 0.00 84 1020.7
20180115110230 7 290 19.0 22.0 0.00 0.00 0.00 84 1020.7
20180115110144 7 279 19.0 22.0 0.00 0.00 0.00 84 1020.6
20180115110035 7 281 18.0 23.0 0.00 0.00 0.00 84 1020.6
20180115105931 7 281 18.0 23.0 0.00 0.00 0.00 84 1020.6
20180115105843 7 280 18.0 23.0 0.00 0.00 0.00 84 1020.6
20180115105744 7 280 18.0 23.0 0.00 0.00 0.00 84 1020.5
20180115105639 7 285 17.0 23.0 0.00 0.00 0.00 84 1020.5
20180115105544 7 281 17.0 23.0 0.00 0.00 0.00 84 1020.5
20180115105438 7 288 18.0 23.0 0.00 0.00 0.00 84 1020.5
20180115105335 6 281 19.0 22.0 0.00 0.00 0.00 84 1020.5
20180115105230 6 296 19.0 22.0 0.00 0.00 0.00 84 1020.5
20180115105145 6 281 18.0 22.0 0.00 0.00 0.00 84 1020.5
20180115105037 6 292 18.0 21.0 0.00 0.00 0.00 84 1020.5
20180115104933 6 281 16.0 21.0 0.00 0.00 0.00 84 1020.5
20180115104831 6 281 14.0 20.0 0.00 0.00 0.00 84 1020.5
20180115104743 6 281 12.0 20.0 0.00 0.00 0.00 84 1020.5
20180115104631 6 279 8.0 19.0 0.00 0.00 0.00 86 1020.5
20180115104540 7 288 7.0 19.0 0.00 0.00 0.00 86 1020.4
20180115104433 7 288 8.0 19.0 0.00 0.00 0.00 86 1020.4
20180115104348 7 292 9.0 19.0 0.00 0.00 0.00 86 1020.4
20180115104244 7 277 9.0 19.0 0.00 0.00 0.00 86 1020.5
20180115104143 7 295 10.0 19.0 0.00 0.00 0.00 86 1020.5
20180115104034 7 302 10.0 19.0 0.00 0.00 0.00 86 1020.5
20180115103948 7 296 9.0 16.0 0.00 0.00 0.00 86 1020.5
20180115103842 7 279 10.0 16.0 0.00 0.00 0.00 86 1020.5
20180115103738 7 298 10.0 16.0 0.00 0.00 0.00 86 1020.5
20180115103633 7 304 7.0 15.0 0.00 0.00 0.00 86 1020.5
20180115103544 7 290 8.0 15.0 0.00 0.00 0.00 86 1020.5
20180115103443 7 302 7.0 15.0 0.00 0.00 0.00 86 1020.5
20180115103339 7 289 7.0 15.0 0.00 0.00 0.00 86 1020.4
20180115103234 7 285 8.0 15.0 0.00 0.00 0.00 85 1020.4
20180115103149 7 279 8.0 15.0 0.00 0.00 0.00 85 1020.4
20180115103039 7 277 9.0 15.0 0.00 0.00 0.00 86 1020.5
20180115102936 7 298 9.0 17.0 0.00 0.00 0.00 85 1020.4
20180115102842 7 46 9.0 17.0 0.00 0.00 0.00 85 1020.5
20180115102739 7 46 9.0 17.0 0.00 0.00 0.00 85 1020.4
20180115102639 7 46 9.0 17.0 0.00 0.00 0.00 85 1020.5
20180115102439 7 27 12.0 17.0 0.00 0.00 0.00 85 1020.5
20180115102334 7 42 13.0 17.0 0.00 0.00 0.00 82 1020.5
20180115102232 5 279 13.0 17.0 0.00 0.00 0.00 82 1020.5
20180115102148 5 279 13.0 17.0 0.00 0.00 0.00 82 1020.5
20180115102035 5 279 13.0 17.0 0.00 0.00 0.00 82 1020.5
20180115101933 5 279 13.0 17.0 0.00 0.00 0.00 82 1020.5
20180115101849 5 279 13.0 17.0 0.00 0.00 0.00 82 1020.5
20180115101746 5 272 13.0 17.0 0.00 0.00 0.00 82 1020.5
20180115101638 5 276 14.0 17.0 0.00 0.00 0.00 82 1020.5
20180115101530 5 277 14.0 17.0 0.00 0.00 0.00 82 1020.4
20180115101446 5 273 15.0 19.0 0.00 0.00 0.00 82 1020.5
20180115101340 5 276 15.0 19.0 0.00 0.00 0.00 83 1020.5
20180115101238 5 275 15.0 19.0 0.00 0.00 0.00 82 1020.4
20180115101139 5 279 14.0 19.0 0.00 0.00 0.00 82 1020.4
20180115101050 5 274 14.0 19.0 0.00 0.00 0.00 82 1020.5
20180115100945 5 275 14.0 19.0 0.00 0.00 0.00 82 1020.5
20180115100834 5 275 15.0 19.0 0.00 0.00 0.00 82 1020.5
20180115100749 5 278 15.0 19.0 0.00 0.00 0.00 82 1020.5
20180115100644 6 273 16.0 20.0 0.00 0.00 0.00 82 1020.5
20180115100534 6 277 16.0 20.0 0.00 0.00 0.00 82 1020.5
20180115100433 6 278 16.0 20.0 0.00 0.00 0.00 82 1020.5
20180115100349 6 277 16.0 20.0 0.00 0.00 0.00 82 1020.5
20180115100245 6 277 15.0 20.0 0.00 0.00 0.00 82 1020.5
20180115100203 6 281 15.0 20.0 0.00 0.00 0.00 82 1020.5
20180115100035 6 277 16.0 23.0 0.00 0.00 0.00 82 1020.4
20180115095949 6 281 17.0 23.0 0.00 0.00 0.00 82 1020.4
20180115095842 6 281 17.0 23.0 0.00 0.00 0.00 82 1020.4
20180115095735 6 275 17.0 23.0 0.00 0.00 0.00 82 1020.4
20180115095635 6 283 17.0 23.0 0.00 0.00 0.00 82 1020.4
20180115095548 6 280 17.0 23.0 0.00 0.00 0.00 82 1020.4
20180115095444 6 284 17.0 23.0 0.00 0.00 0.00 82 1020.4
20180115095339 6 298 18.0 23.0 0.00 0.00 0.00 82 1020.4
20180115095233 6 286 18.0 23.0 0.00 0.00 0.00 82 1020.4
20180115095147 6 280 17.0 23.0 0.00 0.00 0.00 82 1020.4
20180115095044 6 284 17.0 23.0 0.00 0.00 0.00 82 1020.3